| time (UTC) | temp F | wind direction | speed knots | gust knots | rain 1hr in | rain 24hr in | rain mn in | humidity % | barometer mb |
| 20260505070728 | 56 | 360 | 19.1 | 26.1 | 0.00 | 0.00 | 0.00 | 54 | 1006.6 |
| 20260505070625 | 56 | 360 | 19.1 | 26.1 | 0.00 | 0.00 | 0.00 | 54 | 1006.7 |
| 20260505070520 | 56 | 360 | 16.5 | 23.5 | 0.00 | 0.00 | 0.00 | 54 | 1006.7 |
| 20260505070438 | 56 | 360 | 15.6 | 21.7 | 0.00 | 0.00 | 0.00 | 54 | 1006.6 |
| 20260505070321 | 56 | 360 | 16.5 | 21.7 | 0.00 | 0.00 | 0.00 | 54 | 1006.7 |
| 20260505070221 | 56 | 360 | 16.5 | 23.5 | 0.00 | 0.00 | 0.00 | 55 | 1006.6 |
| 20260505070122 | 56 | 360 | 16.5 | 23.5 | 0.00 | 0.00 | 0.00 | 55 | 1006.5 |
| 20260505070016 | 56 | 360 | 15.6 | 23.5 | 0.00 | 0.00 | 0.00 | 55 | 1006.5 |
| 20260505065934 | 56 | 360 | 16.5 | 23.5 | 0.00 | 0.00 | 0.00 | 55 | 1006.5 |
| 20260505065833 | 56 | 360 | 17.4 | 23.5 | 0.00 | 0.00 | 0.00 | 55 | 1006.4 |
| 20260505065752 | 56 | 360 | 17.4 | 24.3 | 0.00 | 0.00 | 0.00 | 55 | 1006.4 |
| 20260505065629 | 56 | 360 | 17.4 | 24.3 | 0.00 | 0.00 | 0.00 | 55 | 1006.4 |
| 20260505065526 | 56 | 360 | 16.5 | 24.3 | 0.00 | 0.00 | 0.00 | 55 | 1006.2 |
| 20260505065424 | 56 | 360 | 16.5 | 24.3 | 0.00 | 0.00 | 0.00 | 55 | 1006.2 |
| 20260505065326 | 56 | 360 | 17.4 | 24.3 | 0.00 | 0.00 | 0.00 | 55 | 1006.2 |
| 20260505065223 | 56 | 360 | 17.4 | 26.1 | 0.00 | 0.00 | 0.00 | 55 | 1006.2 |
| 20260505065125 | 56 | 360 | 17.4 | 26.1 | 0.00 | 0.00 | 0.00 | 55 | 1006.2 |
| 20260505065039 | 57 | 360 | 15.6 | 26.1 | 0.00 | 0.00 | 0.00 | 55 | 1006.2 |
| 20260505064956 | 57 | 360 | 15.6 | 26.9 | 0.00 | 0.00 | 0.00 | 55 | 1006.2 |
| 20260505064853 | 57 | 360 | 16.5 | 26.9 | 0.00 | 0.00 | 0.00 | 54 | 1006.1 |
| 20260505064729 | 57 | 360 | 16.5 | 26.9 | 0.00 | 0.00 | 0.00 | 54 | 1006.1 |
| 20260505064634 | 57 | 360 | 18.2 | 26.9 | 0.00 | 0.00 | 0.00 | 54 | 1006.1 |
| 20260505064550 | 57 | 360 | 18.2 | 26.9 | 0.00 | 0.00 | 0.00 | 54 | 1005.9 |
| 20260505064450 | 57 | 360 | 18.2 | 26.9 | 0.00 | 0.00 | 0.00 | 54 | 1005.9 |
| 20260505064327 | 57 | 360 | 18.2 | 26.9 | 0.00 | 0.00 | 0.00 | 54 | 1005.8 |
| 20260505064224 | 57 | 360 | 19.1 | 26.9 | 0.00 | 0.00 | 0.00 | 55 | 1005.8 |
| 20260505064144 | 57 | 360 | 20.0 | 26.9 | 0.00 | 0.00 | 0.00 | 55 | 1005.6 |
| 20260505064017 | 57 | 360 | 20.9 | 26.9 | 0.00 | 0.00 | 0.00 | 54 | 1005.6 |
| 20260505063915 | 57 | 360 | 20.0 | 26.9 | 0.00 | 0.00 | 0.00 | 54 | 1005.5 |
| 20260505063816 | 57 | 360 | 18.2 | 26.1 | 0.00 | 0.00 | 0.00 | 55 | 1005.5 |
| 20260505063717 | 57 | 360 | 19.1 | 26.1 | 0.00 | 0.00 | 0.00 | 55 | 1005.5 |
| 20260505063634 | 57 | 360 | 19.1 | 26.1 | 0.00 | 0.00 | 0.00 | 55 | 1005.5 |
| 20260505063530 | 57 | 360 | 19.1 | 24.3 | 0.00 | 0.00 | 0.00 | 55 | 1005.5 |
| 20260505063447 | 57 | 360 | 19.1 | 24.3 | 0.00 | 0.00 | 0.00 | 55 | 1005.5 |
| 20260505063327 | 57 | 360 | 18.2 | 26.9 | 0.00 | 0.00 | 0.00 | 55 | 1005.5 |
| 20260505063244 | 57 | 360 | 18.2 | 26.9 | 0.00 | 0.00 | 0.00 | 55 | 1005.5 |
| 20260505063202 | 57 | 360 | 17.4 | 26.9 | 0.00 | 0.00 | 0.00 | 56 | 1005.5 |
| 20260505063058 | 57 | 360 | 17.4 | 26.9 | 0.00 | 0.00 | 0.00 | 55 | 1005.5 |
| 20260505062934 | 58 | 360 | 16.5 | 27.8 | 0.00 | 0.00 | 0.00 | 56 | 1005.5 |
| 20260505062834 | 58 | 360 | 17.4 | 27.8 | 0.00 | 0.00 | 0.00 | 56 | 1005.5 |
| 20260505062734 | 58 | 360 | 18.2 | 27.8 | 0.00 | 0.00 | 0.00 | 56 | 1005.4 |
| 20260505062633 | 58 | 360 | 20.0 | 27.8 | 0.00 | 0.00 | 0.00 | 56 | 1005.3 |
| 20260505062526 | 58 | 360 | 19.1 | 27.8 | 0.00 | 0.00 | 0.00 | 56 | 1005.3 |
| 20260505062424 | 58 | 360 | 17.4 | 28.7 | 0.00 | 0.00 | 0.00 | 56 | 1005.2 |
| 20260505062324 | 58 | 360 | 17.4 | 28.7 | 0.00 | 0.00 | 0.00 | 56 | 1005.3 |
| 20260505062221 | 58 | 360 | 20.9 | 28.7 | 0.00 | 0.00 | 0.00 | 56 | 1005.3 |
| 20260505062119 | 58 | 360 | 20.0 | 28.7 | 0.00 | 0.00 | 0.00 | 56 | 1005.2 |
| 20260505062017 | 58 | 360 | 20.0 | 28.7 | 0.00 | 0.00 | 0.00 | 56 | 1005.2 |
| 20260505061914 | 58 | 360 | 20.0 | 28.7 | 0.00 | 0.00 | 0.00 | 56 | 1005.3 |
| 20260505061836 | 58 | 360 | 19.1 | 28.7 | 0.00 | 0.00 | 0.00 | 56 | 1005.3 |
| 20260505061752 | 58 | 360 | 19.1 | 28.7 | 0.00 | 0.00 | 0.00 | 56 | 1005.3 |
| 20260505061632 | 58 | 360 | 19.1 | 28.7 | 0.00 | 0.00 | 0.00 | 56 | 1005.3 |
| 20260505061524 | 58 | 360 | 20.9 | 28.7 | 0.00 | 0.00 | 0.00 | 57 | 1005.3 |
| 20260505061421 | 58 | 360 | 21.7 | 28.7 | 0.00 | 0.00 | 0.00 | 57 | 1005.3 |
| 20260505061322 | 58 | 360 | 19.1 | 25.2 | 0.00 | 0.00 | 0.00 | 56 | 1005.2 |
| 20260505061223 | 58 | 360 | 17.4 | 25.2 | 0.00 | 0.00 | 0.00 | 56 | 1005.2 |
| 20260505061121 | 58 | 360 | 17.4 | 25.2 | 0.00 | 0.00 | 0.00 | 56 | 1005.3 |
| 20260505061017 | 58 | 360 | 16.5 | 25.2 | 0.00 | 0.00 | 0.00 | 56 | 1005.2 |
| 20260505060935 | 59 | 360 | 16.5 | 25.2 | 0.00 | 0.00 | 0.00 | 56 | 1005.2 |
| 20260505060834 | 59 | 360 | 18.2 | 25.2 | 0.00 | 0.00 | 0.00 | 56 | 1005.2 |
| 20260505060731 | 59 | 360 | 19.1 | 25.2 | 0.00 | 0.00 | 0.00 | 56 | 1005.1 |
| 20260505060627 | 59 | 360 | 17.4 | 25.2 | 0.00 | 0.00 | 0.00 | 56 | 1005.0 |
| 20260505060525 | 59 | 360 | 17.4 | 25.2 | 0.00 | 0.00 | 0.00 | 56 | 1004.9 |
| 20260505060447 | 59 | 360 | 17.4 | 25.2 | 0.00 | 0.00 | 0.00 | 55 | 1004.9 |
| 20260505060328 | 59 | 360 | 18.2 | 25.2 | 0.00 | 0.00 | 0.00 | 55 | 1004.9 |
| 20260505060227 | 59 | 360 | 19.1 | 28.7 | 0.00 | 0.00 | 0.00 | 55 | 1004.8 |
| 20260505060145 | 59 | 360 | 20.0 | 28.7 | 0.00 | 0.00 | 0.00 | 55 | 1004.7 |
| 20260505060042 | 59 | 360 | 20.9 | 28.7 | 0.00 | 0.00 | 0.00 | 55 | 1004.6 |
| 20260505055930 | 60 | 360 | 20.0 | 31.3 | 0.00 | 0.00 | 0.00 | 55 | 1004.6 |
| 20260505055829 | 60 | 360 | 20.0 | 32.2 | 0.00 | 0.00 | 0.00 | 55 | 1004.5 |
| 20260505055726 | 60 | 360 | 20.0 | 32.2 | 0.00 | 0.00 | 0.00 | 54 | 1004.5 |
| 20260505055627 | 60 | 360 | 18.2 | 32.2 | 0.00 | 0.00 | 0.00 | 54 | 1004.4 |
| 20260505055522 | 60 | 360 | 16.5 | 32.2 | 0.00 | 0.00 | 0.00 | 54 | 1004.4 |
| 20260505055419 | 60 | 360 | 19.1 | 32.2 | 0.00 | 0.00 | 0.00 | 54 | 1004.3 |
| 20260505055320 | 60 | 360 | 21.7 | 32.2 | 0.00 | 0.00 | 0.00 | 54 | 1004.3 |
| 20260505055218 | 60 | 360 | 22.6 | 32.2 | 0.00 | 0.00 | 0.00 | 54 | 1004.2 |
| 20260505055115 | 60 | 360 | 22.6 | 32.2 | 0.00 | 0.00 | 0.00 | 53 | 1004.2 |
| 20260505055029 | 60 | 360 | 25.2 | 32.2 | 0.00 | 0.00 | 0.00 | 53 | 1004.1 |
| 20260505054930 | 60 | 360 | 25.2 | 32.2 | 0.00 | 0.00 | 0.00 | 53 | 1004.1 |
| 20260505054814 | 60 | 360 | 23.5 | 31.3 | 0.00 | 0.00 | 0.00 | 53 | 1004.0 |
| 20260505054734 | 61 | 360 | 23.5 | 31.3 | 0.00 | 0.00 | 0.00 | 53 | 1004.0 |
| 20260505054652 | 61 | 360 | 21.7 | 31.3 | 0.00 | 0.00 | 0.00 | 52 | 1003.9 |
| 20260505054528 | 61 | 360 | 21.7 | 31.3 | 0.00 | 0.00 | 0.00 | 52 | 1003.9 |
| 20260505054425 | 61 | 360 | 21.7 | 27.8 | 0.00 | 0.00 | 0.00 | 51 | 1003.9 |
| 20260505054342 | 61 | 360 | 20.0 | 27.8 | 0.00 | 0.00 | 0.00 | 51 | 1003.9 |
| 20260505054218 | 61 | 360 | 20.0 | 27.8 | 0.00 | 0.00 | 0.00 | 50 | 1003.9 |
| 20260505054135 | 61 | 360 | 20.9 | 27.8 | 0.00 | 0.00 | 0.00 | 50 | 1003.8 |
| 20260505054015 | 62 | 360 | 19.1 | 28.7 | 0.00 | 0.00 | 0.00 | 49 | 1003.8 |
| 20260505053916 | 62 | 360 | 17.4 | 28.7 | 0.00 | 0.00 | 0.00 | 49 | 1003.7 |
| 20260505053835 | 62 | 360 | 17.4 | 28.7 | 0.00 | 0.00 | 0.00 | 48 | 1003.8 |
| 20260505053732 | 62 | 360 | 20.0 | 28.7 | 0.00 | 0.00 | 0.00 | 48 | 1003.7 |
| 20260505053650 | 62 | 360 | 20.9 | 28.7 | 0.00 | 0.00 | 0.00 | 47 | 1003.7 |
| 20260505053526 | 62 | 360 | 20.9 | 28.7 | 0.00 | 0.00 | 0.00 | 47 | 1003.7 |
| 20260505053424 | 62 | 360 | 20.0 | 28.7 | 0.00 | 0.00 | 0.00 | 47 | 1003.6 |
| 20260505053344 | 63 | 360 | 20.9 | 28.7 | 0.00 | 0.00 | 0.00 | 47 | 1003.6 |
| 20260505053227 | 63 | 360 | 21.7 | 28.7 | 0.00 | 0.00 | 0.00 | 47 | 1003.5 |
| 20260505053145 | 63 | 360 | 22.6 | 28.7 | 0.00 | 0.00 | 0.00 | 46 | 1003.4 |
| 20260505053021 | 63 | 360 | 23.5 | 32.2 | 0.00 | 0.00 | 0.00 | 46 | 1003.4 |
| 20260505052922 | 63 | 360 | 23.5 | 33.0 | 0.00 | 0.00 | 0.00 | 45 | 1003.3 |
| 20260505052821 | 63 | 360 | 23.5 | 33.0 | 0.00 | 0.00 | 0.00 | 45 | 1003.2 |
| 20260505052738 | 63 | 360 | 22.6 | 33.0 | 0.00 | 0.00 | 0.00 | 44 | 1003.2 |
| 20260505052638 | 64 | 360 | 21.7 | 33.0 | 0.00 | 0.00 | 0.00 | 44 | 1003.2 |
| 20260505052531 | 64 | 360 | 21.7 | 33.0 | 0.00 | 0.00 | 0.00 | 43 | 1003.2 |
| 20260505052452 | 64 | 360 | 20.9 | 33.0 | 0.00 | 0.00 | 0.00 | 43 | 1003.2 |
| 20260505052351 | 65 | 360 | 21.7 | 33.0 | 0.00 | 0.00 | 0.00 | 42 | 1003.1 |
| 20260505052230 | 65 | 360 | 24.3 | 33.0 | 0.00 | 0.00 | 0.00 | 41 | 1003.1 |
| 20260505052128 | 65 | 360 | 25.2 | 33.0 | 0.00 | 0.00 | 0.00 | 40 | 1003.1 |
| 20260505052024 | 65 | 360 | 25.2 | 33.0 | 0.00 | 0.00 | 0.00 | 39 | 1003.1 |
| 20260505051941 | 66 | 360 | 22.6 | 33.0 | 0.00 | 0.00 | 0.00 | 38 | 1003.1 |
| 20260505051819 | 66 | 360 | 20.9 | 31.3 | 0.00 | 0.00 | 0.00 | 36 | 1003.1 |
| 20260505051723 | 66 | 360 | 20.0 | 26.9 | 0.00 | 0.00 | 0.00 | 36 | 1003.1 |
| 20260505051640 | 66 | 360 | 20.9 | 26.9 | 0.00 | 0.00 | 0.00 | 35 | 1003.1 |
| 20260505051534 | 66 | 360 | 19.1 | 26.9 | 0.00 | 0.00 | 0.00 | 35 | 1003.1 |
| 20260505051429 | 66 | 360 | 18.2 | 25.2 | 0.00 | 0.00 | 0.00 | 35 | 1003.1 |
| 20260505051333 | 66 | 360 | 18.2 | 22.6 | 0.00 | 0.00 | 0.00 | 35 | 1003.1 |
| 20260505051229 | 66 | 360 | 17.4 | 20.9 | 0.00 | 0.00 | 0.00 | 35 | 1003.2 |
| 20260505051125 | 66 | 360 | 15.6 | 20.9 | 0.00 | 0.00 | 0.00 | 35 | 1003.3 |
| 20260505051039 | 66 | 360 | 12.2 | 17.4 | 0.00 | 0.00 | 0.00 | 35 | 1003.3 |
| 20260505050937 | 66 | 360 | 11.3 | 16.5 | 0.00 | 0.00 | 0.00 | 35 | 1003.3 |
| 20260505050834 | 66 | 360 | 11.3 | 13.9 | 0.00 | 0.00 | 0.00 | 35 | 1003.4 |
| 20260505050735 | 66 | 360 | 10.4 | 13.9 | 0.00 | 0.00 | 0.00 | 35 | 1003.3 |
| 20260505050632 | 66 | 360 | 10.4 | 13.9 | 0.00 | 0.00 | 0.00 | 35 | 1003.3 |
| 20260505050526 | 66 | 360 | 9.6 | 13.9 | 0.00 | 0.00 | 0.00 | 35 | 1003.3 |
| 20260505050423 | 66 | 360 | 9.6 | 13.9 | 0.00 | 0.00 | 0.00 | 35 | 1003.2 |
| 20260505050325 | 66 | 360 | 9.6 | 13.9 | 0.00 | 0.00 | 0.00 | 34 | 1003.1 |
| 20260505050243 | 66 | 360 | 9.6 | 13.9 | 0.00 | 0.00 | 0.00 | 34 | 1003.1 |
| 20260505050120 | 66 | 360 | 8.7 | 12.2 | 0.00 | 0.00 | 0.00 | 34 | 1003.0 |
| 20260505041731 | 68 | 80 | 5.2 | 7.8 | 0.00 | 0.00 | 0.00 | 31 | 1002.3 |
| 20260505041630 | 68 | 96 | 6.1 | 7.8 | 0.00 | 0.00 | 0.00 | 31 | 1002.3 |
| 20260505041527 | 68 | 80 | 6.1 | 7.8 | 0.00 | 0.00 | 0.00 | 32 | 1002.2 |
| 20260505041429 | 68 | 76 | 6.1 | 7.8 | 0.00 | 0.00 | 0.00 | 31 | 1002.2 |
| 20260505041328 | 68 | 86 | 6.1 | 7.8 | 0.00 | 0.00 | 0.00 | 31 | 1002.2 |
| 20260505041227 | 68 | 76 | 6.1 | 7.8 | 0.00 | 0.00 | 0.00 | 31 | 1002.1 |
| 20260505041146 | 69 | 74 | 5.2 | 7.0 | 0.00 | 0.00 | 0.00 | 31 | 1002.2 |
| 20260505041017 | 69 | 69 | 3.5 | 6.1 | 0.00 | 0.00 | 0.00 | 31 | 1002.2 |
| 20260505040937 | 69 | 79 | 2.6 | 4.3 | 0.00 | 0.00 | 0.00 | 31 | 1002.2 |
| 20260505040817 | 69 | 76 | 2.6 | 3.5 | 0.00 | 0.00 | 0.00 | 31 | 1002.3 |
| 20260505040733 | 69 | 75 | 1.7 | 3.5 | 0.00 | 0.00 | 0.00 | 31 | 1002.3 |
| 20260505040651 | 69 | 93 | 0.9 | 2.6 | 0.00 | 0.00 | 0.00 | 30 | 1002.3 |
| 20260505040526 | 69 | 70 | 0.9 | 3.5 | 0.00 | 0.00 | 0.00 | 30 | 1002.3 |
| 20260505040427 | 69 | 70 | 0.0 | 4.3 | 0.00 | 0.00 | 0.00 | 30 | 1002.4 |
| 20260505040325 | 69 | 70 | 0.9 | 4.3 | 0.00 | 0.00 | 0.00 | 30 | 1002.4 |
| 20260505040221 | 69 | 70 | 0.9 | 6.1 | 0.00 | 0.00 | 0.00 | 30 | 1002.5 |
| 20260505040138 | 69 | 70 | 0.9 | 6.1 | 0.00 | 0.00 | 0.00 | 30 | 1002.5 |
| 20260505040032 | 69 | 70 | 0.9 | 6.1 | 0.00 | 0.00 | 0.00 | 30 | 1002.5 |
| 20260505035929 | 69 | 70 | 0.9 | 6.1 | 0.00 | 0.00 | 0.00 | 30 | 1002.5 |
| 20260505035829 | 69 | 70 | 1.7 | 6.1 | 0.00 | 0.00 | 0.00 | 30 | 1002.5 |
| 20260505035726 | 69 | 70 | 2.6 | 6.1 | 0.00 | 0.00 | 0.00 | 30 | 1002.4 |
| 20260505035628 | 69 | 70 | 3.5 | 7.0 | 0.00 | 0.00 | 0.00 | 30 | 1002.4 |
| 20260505035526 | 69 | 67 | 3.5 | 8.7 | 0.00 | 0.00 | 0.00 | 30 | 1002.4 |
| 20260505035424 | 69 | 69 | 4.3 | 9.6 | 0.00 | 0.00 | 0.00 | 30 | 1002.5 |
| 20260505035322 | 69 | 78 | 4.3 | 10.4 | 0.00 | 0.00 | 0.00 | 30 | 1002.4 |
| 20260505035219 | 70 | 77 | 4.3 | 10.4 | 0.00 | 0.00 | 0.00 | 30 | 1002.5 |
| 20260505035117 | 70 | 52 | 4.3 | 10.4 | 0.00 | 0.00 | 0.00 | 29 | 1002.5 |
| 20260505035031 | 70 | 48 | 4.3 | 10.4 | 0.00 | 0.00 | 0.00 | 29 | 1002.5 |
| 20260505034934 | 70 | 42 | 4.3 | 10.4 | 0.00 | 0.00 | 0.00 | 29 | 1002.5 |
| 20260505034833 | 70 | 38 | 5.2 | 10.4 | 0.00 | 0.00 | 0.00 | 29 | 1002.5 |
| 20260505034731 | 70 | 48 | 6.1 | 13.0 | 0.00 | 0.00 | 0.00 | 29 | 1002.5 |
| 20260505034628 | 70 | 54 | 7.8 | 13.0 | 0.00 | 0.00 | 0.00 | 29 | 1002.5 |
| 20260505034521 | 70 | 65 | 8.7 | 13.0 | 0.00 | 0.00 | 0.00 | 29 | 1002.4 |
| 20260505034419 | 70 | 71 | 8.7 | 13.0 | 0.00 | 0.00 | 0.00 | 29 | 1002.4 |
| 20260505034319 | 70 | 76 | 8.7 | 13.0 | 0.00 | 0.00 | 0.00 | 29 | 1002.4 |
| 20260505034216 | 70 | 67 | 8.7 | 13.0 | 0.00 | 0.00 | 0.00 | 29 | 1002.4 |
| 20260505034117 | 70 | 72 | 8.7 | 14.8 | 0.00 | 0.00 | 0.00 | 29 | 1002.4 |
| 20260505034032 | 70 | 81 | 8.7 | 14.8 | 0.00 | 0.00 | 0.00 | 29 | 1002.4 |
| 20260505033950 | 70 | 63 | 9.6 | 14.8 | 0.00 | 0.00 | 0.00 | 29 | 1002.4 |
| 20260505033829 | 70 | 55 | 10.4 | 14.8 | 0.00 | 0.00 | 0.00 | 29 | 1002.4 |
| 20260505033726 | 70 | 56 | 10.4 | 14.8 | 0.00 | 0.00 | 0.00 | 29 | 1002.4 |
| 20260505033623 | 70 | 63 | 10.4 | 14.8 | 0.00 | 0.00 | 0.00 | 29 | 1002.4 |
| 20260505033520 | 70 | 67 | 10.4 | 14.8 | 0.00 | 0.00 | 0.00 | 29 | 1002.4 |
| 20260505033418 | 70 | 61 | 10.4 | 14.8 | 0.00 | 0.00 | 0.00 | 29 | 1002.4 |
| 20260505033342 | 70 | 68 | 11.3 | 14.8 | 0.00 | 0.00 | 0.00 | 29 | 1002.4 |
| 20260505033258 | 70 | 64 | 13.0 | 14.8 | 0.00 | 0.00 | 0.00 | 29 | 1002.4 |
| 20260505033154 | 70 | 63 | 13.9 | 14.8 | 0.00 | 0.00 | 0.00 | 29 | 1002.4 |
| 20260505033052 | 70 | 63 | 12.2 | 14.8 | 0.00 | 0.00 | 0.00 | 29 | 1002.4 |
| 20260505032930 | 69 | 65 | 10.4 | 13.0 | 0.00 | 0.00 | 0.00 | 30 | 1002.5 |
| 20260505032849 | 69 | 65 | 10.4 | 13.9 | 0.00 | 0.00 | 0.00 | 30 | 1002.5 |
| 20260505032727 | 69 | 71 | 11.3 | 13.9 | 0.00 | 0.00 | 0.00 | 30 | 1002.5 |
| 20260505032624 | 69 | 65 | 10.4 | 13.9 | 0.00 | 0.00 | 0.00 | 30 | 1002.4 |
| 20260505032518 | 69 | 71 | 9.6 | 12.2 | 0.00 | 0.00 | 0.00 | 31 | 1002.5 |
| 20260505032435 | 69 | 55 | 9.6 | 12.2 | 0.00 | 0.00 | 0.00 | 31 | 1002.5 |
| 20260505032340 | 69 | 65 | 8.7 | 12.2 | 0.00 | 0.00 | 0.00 | 31 | 1002.5 |
| 20260505032236 | 69 | 61 | 7.8 | 10.4 | 0.00 | 0.00 | 0.00 | 31 | 1002.6 |
| 20260505032156 | 69 | 52 | 7.0 | 9.6 | 0.00 | 0.00 | 0.00 | 31 | 1002.6 |
| 20260505032050 | 69 | 36 | 6.1 | 8.7 | 0.00 | 0.00 | 0.00 | 31 | 1002.6 |
| 20260505031949 | 69 | 31 | 6.1 | 8.7 | 0.00 | 0.00 | 0.00 | 31 | 1002.6 |
| 20260505031828 | 69 | 22 | 5.2 | 8.7 | 0.00 | 0.00 | 0.00 | 31 | 1002.6 |
| 20260505031731 | 68 | 45 | 6.1 | 8.7 | 0.00 | 0.00 | 0.00 | 31 | 1002.5 |
| 20260505031629 | 68 | 52 | 6.1 | 8.7 | 0.00 | 0.00 | 0.00 | 31 | 1002.4 |
| 20260505031543 | 68 | 46 | 7.0 | 8.7 | 0.00 | 0.00 | 0.00 | 31 | 1002.5 |
| 20260505031424 | 68 | 49 | 7.0 | 8.7 | 0.00 | 0.00 | 0.00 | 32 | 1002.5 |
| 20260505031323 | 68 | 45 | 6.1 | 7.8 | 0.00 | 0.00 | 0.00 | 32 | 1002.4 |
| 20260505031224 | 68 | 49 | 6.1 | 7.8 | 0.00 | 0.00 | 0.00 | 32 | 1002.4 |
| 20260505031141 | 68 | 38 | 6.1 | 7.8 | 0.00 | 0.00 | 0.00 | 32 | 1002.4 |
| 20260505031056 | 68 | 47 | 5.2 | 7.8 | 0.00 | 0.00 | 0.00 | 32 | 1002.4 |
| 20260505030934 | 68 | 37 | 5.2 | 7.8 | 0.00 | 0.00 | 0.00 | 32 | 1002.3 |
| 20260505030831 | 68 | 48 | 5.2 | 7.8 | 0.00 | 0.00 | 0.00 | 32 | 1002.3 |
| 20260505030727 | 68 | 54 | 6.1 | 7.8 | 0.00 | 0.00 | 0.00 | 32 | 1002.3 |
| 20260505030624 | 68 | 47 | 6.1 | 7.8 | 0.00 | 0.00 | 0.00 | 32 | 1002.3 |
| 20260505030541 | 68 | 47 | 7.0 | 7.8 | 0.00 | 0.00 | 0.00 | 32 | 1002.3 |
| 20260505030421 | 68 | 36 | 7.0 | 7.8 | 0.00 | 0.00 | 0.00 | 33 | 1002.2 |
| 20260505030323 | 67 | 50 | 7.0 | 7.8 | 0.00 | 0.00 | 0.00 | 33 | 1002.2 |
| 20260505030219 | 67 | 37 | 7.0 | 7.8 | 0.00 | 0.00 | 0.00 | 33 | 1002.3 |
| 20260505030120 | 67 | 37 | 7.0 | 7.8 | 0.00 | 0.00 | 0.00 | 33 | 1002.2 |
| 20260505030035 | 67 | 24 | 6.1 | 7.8 | 0.00 | 0.00 | 0.00 | 33 | 1002.3 |
| 20260505025932 | 67 | 36 | 5.2 | 7.0 | 0.00 | 0.00 | 0.00 | 34 | 1002.3 |
| 20260505025835 | 67 | 37 | 4.3 | 6.1 | 0.00 | 0.00 | 0.00 | 34 | 1002.3 |
| 20260505025731 | 68 | 24 | 4.3 | 6.1 | 0.00 | 0.00 | 0.00 | 33 | 1002.3 |
| 20260505025628 | 68 | 23 | 3.5 | 4.3 | 0.00 | 0.00 | 0.00 | 33 | 1002.4 |
| 20260505025521 | 69 | 342 | 3.5 | 4.3 | 0.00 | 0.00 | 0.00 | 33 | 1002.3 |
| 20260505025421 | 69 | 334 | 2.6 | 4.3 | 0.00 | 0.00 | 0.00 | 33 | 1002.3 |
| 20260505025320 | 69 | 325 | 0.9 | 3.5 | 0.00 | 0.00 | 0.00 | 32 | 1002.3 |
| 20260505025216 | 69 | 189 | 0.0 | 0.0 | 0.00 | 0.00 | 0.00 | 29 | 1002.1 |
| 20260505025134 | 69 | 189 | 0.0 | 0.0 | 0.00 | 0.00 | 0.00 | 30 | 1002.1 |
| 20260505025048 | 69 | 189 | 0.0 | 0.0 | 0.00 | 0.00 | 0.00 | 30 | 1002.1 |
| 20260505024925 | 69 | 189 | 0.0 | 0.0 | 0.00 | 0.00 | 0.00 | 30 | 1002.1 |
| 20260505024849 | 69 | 189 | 0.0 | 0.0 | 0.00 | 0.00 | 0.00 | 30 | 1002.0 |
| 20260505024727 | 69 | 189 | 0.0 | 0.0 | 0.00 | 0.00 | 0.00 | 30 | 1002.0 |
| 20260505024623 | 68 | 189 | 0.0 | 0.0 | 0.00 | 0.00 | 0.00 | 30 | 1002.0 |
| 20260505024520 | 68 | 190 | 0.0 | 0.0 | 0.00 | 0.00 | 0.00 | 31 | 1002.0 |
| 20260505024417 | 68 | 190 | 0.0 | 0.9 | 0.00 | 0.00 | 0.00 | 31 | 1002.0 |
| 20260505024336 | 68 | 190 | 0.0 | 1.7 | 0.00 | 0.00 | 0.00 | 31 | 1002.0 |
| 20260505024254 | 68 | 190 | 0.0 | 2.6 | 0.00 | 0.00 | 0.00 | 31 | 1002.0 |
| 20260505024131 | 68 | 190 | 0.0 | 2.6 | 0.00 | 0.00 | 0.00 | 31 | 1002.0 |
| 20260505024048 | 68 | 190 | 0.0 | 2.6 | 0.00 | 0.00 | 0.00 | 31 | 1002.0 |
| 20260505023928 | 68 | 190 | 0.0 | 2.6 | 0.00 | 0.00 | 0.00 | 31 | 1002.0 |
| 20260505023828 | 68 | 190 | 0.0 | 2.6 | 0.00 | 0.00 | 0.00 | 32 | 1002.0 |
| 20260505023744 | 68 | 190 | 0.0 | 2.6 | 0.00 | 0.00 | 0.00 | 33 | 1002.0 |
| 20260505023640 | 67 | 190 | 0.0 | 2.6 | 0.00 | 0.00 | 0.00 | 33 | 1002.0 |
| 20260505023535 | 67 | 190 | 0.9 | 2.6 | 0.00 | 0.00 | 0.00 | 32 | 1002.0 |
| 20260505023432 | 68 | 190 | 1.7 | 2.6 | 0.00 | 0.00 | 0.00 | 33 | 1002.0 |
| 20260505023351 | 68 | 190 | 1.7 | 2.6 | 0.00 | 0.00 | 0.00 | 33 | 1002.0 |
| 20260505023227 | 68 | 342 | 1.7 | 2.6 | 0.00 | 0.00 | 0.00 | 33 | 1002.0 |
| 20260505023125 | 68 | 342 | 1.7 | 2.6 | 0.00 | 0.00 | 0.00 | 33 | 1002.0 |
| 20260505023023 | 68 | 342 | 1.7 | 2.6 | 0.00 | 0.00 | 0.00 | 33 | 1001.9 |
| 20260505022924 | 68 | 341 | 1.7 | 2.6 | 0.00 | 0.00 | 0.00 | 33 | 1002.0 |
| 20260505022822 | 68 | 342 | 1.7 | 2.6 | 0.00 | 0.00 | 0.00 | 33 | 1001.9 |
| 20260505022719 | 68 | 342 | 0.9 | 1.7 | 0.00 | 0.00 | 0.00 | 33 | 1002.0 |
| 20260505022620 | 68 | 360 | 0.0 | 2.6 | 0.00 | 0.00 | 0.00 | 33 | 1002.0 |
| 20260505022534 | 68 | 360 | 0.0 | 2.6 | 0.00 | 0.00 | 0.00 | 33 | 1001.9 |
| 20260505022433 | 68 | 341 | 0.0 | 2.6 | 0.00 | 0.00 | 0.00 | 33 | 1001.9 |
| 20260505022336 | 68 | 360 | 0.0 | 2.6 | 0.00 | 0.00 | 0.00 | 33 | 1001.9 |
| 20260505022236 | 68 | 342 | 0.0 | 2.6 | 0.00 | 0.00 | 0.00 | 33 | 1001.9 |
| 20260505022133 | 68 | 360 | 0.0 | 3.5 | 0.00 | 0.00 | 0.00 | 33 | 1001.8 |
| 20260505022026 | 68 | 341 | 0.0 | 3.5 | 0.00 | 0.00 | 0.00 | 33 | 1001.8 |
| 20260505021945 | 68 | 360 | 0.0 | 3.5 | 0.00 | 0.00 | 0.00 | 33 | 1001.8 |
| 20260505021844 | 68 | 342 | 0.9 | 3.5 | 0.00 | 0.00 | 0.00 | 33 | 1001.8 |
| 20260505021800 | 68 | 342 | 1.7 | 3.5 | 0.00 | 0.00 | 0.00 | 33 | 1001.8 |
| 20260505021700 | 68 | 342 | 1.7 | 4.3 | 0.00 | 0.00 | 0.00 | 33 | 1001.7 |
| 20260505021553 | 68 | 342 | 1.7 | 5.2 | 0.00 | 0.00 | 0.00 | 33 | 1001.7 |
| 20260505021414 | 68 | 342 | 1.7 | 6.1 | 0.00 | 0.00 | 0.00 | 33 | 1001.7 |
| 20260505021318 | 68 | 342 | 2.6 | 6.1 | 0.00 | 0.00 | 0.00 | 33 | 1001.6 |
| 20260505021216 | 68 | 342 | 2.6 | 6.1 | 0.00 | 0.00 | 0.00 | 33 | 1001.6 |
| 20260505021116 | 68 | 342 | 2.6 | 6.1 | 0.00 | 0.00 | 0.00 | 32 | 1001.6 |
| 20260505021030 | 68 | 342 | 2.6 | 6.1 | 0.00 | 0.00 | 0.00 | 32 | 1001.6 |
| 20260505020927 | 69 | 342 | 3.5 | 6.1 | 0.00 | 0.00 | 0.00 | 32 | 1001.7 |
| 20260505020826 | 69 | 342 | 3.5 | 6.1 | 0.00 | 0.00 | 0.00 | 32 | 1001.7 |
| 20260505020745 | 69 | 342 | 4.3 | 6.1 | 0.00 | 0.00 | 0.00 | 31 | 1001.7 |
| 20260505020625 | 69 | 341 | 4.3 | 6.1 | 0.00 | 0.00 | 0.00 | 31 | 1001.7 |
| 20260505020519 | 69 | 342 | 5.2 | 6.1 | 0.00 | 0.00 | 0.00 | 30 | 1001.7 |
| 20260505020416 | 69 | 339 | 4.3 | 6.1 | 0.00 | 0.00 | 0.00 | 29 | 1001.7 |
| 20260505020335 | 70 | 339 | 4.3 | 5.2 | 0.00 | 0.00 | 0.00 | 29 | 1001.7 |
| 20260505020234 | 70 | 344 | 4.3 | 5.2 | 0.00 | 0.00 | 0.00 | 28 | 1001.7 |
| 20260505020132 | 70 | 355 | 4.3 | 5.2 | 0.00 | 0.00 | 0.00 | 28 | 1001.7 |
| 20260505020026 | 70 | 355 | 4.3 | 6.1 | 0.00 | 0.00 | 0.00 | 28 | 1001.6 |
| 20260505015926 | 70 | 332 | 4.3 | 6.1 | 0.00 | 0.00 | 0.00 | 28 | 1001.6 |
| 20260505015829 | 70 | 328 | 4.3 | 6.1 | 0.00 | 0.00 | 0.00 | 27 | 1001.5 |
| 20260505015728 | 70 | 321 | 4.3 | 6.1 | 0.00 | 0.00 | 0.00 | 27 | 1001.6 |
| 20260505015625 | 70 | 315 | 4.3 | 6.1 | 0.00 | 0.00 | 0.00 | 27 | 1001.7 |
| 20260505015521 | 71 | 311 | 4.3 | 6.1 | 0.00 | 0.00 | 0.00 | 27 | 1001.7 |
| 20260505015422 | 71 | 309 | 4.3 | 6.1 | 0.00 | 0.00 | 0.00 | 27 | 1001.7 |
| 20260505015324 | 71 | 309 | 5.2 | 6.1 | 0.00 | 0.00 | 0.00 | 27 | 1001.7 |
| 20260505015221 | 71 | 306 | 5.2 | 6.1 | 0.00 | 0.00 | 0.00 | 26 | 1001.7 |
| 20260505015143 | 71 | 309 | 5.2 | 6.1 | 0.00 | 0.00 | 0.00 | 26 | 1001.7 |
| 20260505015019 | 71 | 306 | 5.2 | 6.1 | 0.00 | 0.00 | 0.00 | 26 | 1001.7 |
| 20260505014937 | 72 | 300 | 5.2 | 6.1 | 0.00 | 0.00 | 0.00 | 26 | 1001.7 |
| 20260505014819 | 72 | 296 | 5.2 | 6.1 | 0.00 | 0.00 | 0.00 | 26 | 1001.8 |
| 20260505014738 | 72 | 296 | 5.2 | 6.1 | 0.00 | 0.00 | 0.00 | 26 | 1001.7 |
| 20260505014656 | 72 | 292 | 4.3 | 5.2 | 0.00 | 0.00 | 0.00 | 26 | 1001.7 |
| 20260505014529 | 72 | 292 | 4.3 | 5.2 | 0.00 | 0.00 | 0.00 | 25 | 1001.7 |
| 20260505014430 | 72 | 290 | 4.3 | 5.2 | 0.00 | 0.00 | 0.00 | 25 | 1001.7 |
| 20260505014332 | 72 | 290 | 3.5 | 4.3 | 0.00 | 0.00 | 0.00 | 25 | 1001.7 |
| 20260505014229 | 72 | 290 | 3.5 | 4.3 | 0.00 | 0.00 | 0.00 | 25 | 1001.7 |
| 20260505014128 | 72 | 289 | 3.5 | 3.5 | 0.00 | 0.00 | 0.00 | 25 | 1001.7 |
| 20260505014042 | 72 | 292 | 3.5 | 3.5 | 0.00 | 0.00 | 0.00 | 25 | 1001.8 |
| 20260505013939 | 72 | 287 | 2.6 | 3.5 | 0.00 | 0.00 | 0.00 | 25 | 1001.7 |
| 20260505013816 | 72 | 281 | 2.6 | 3.5 | 0.00 | 0.00 | 0.00 | 25 | 1001.8 |
| 20260505013736 | 72 | 275 | 1.7 | 3.5 | 0.00 | 0.00 | 0.00 | 25 | 1001.8 |
| 20260505013654 | 73 | 269 | 1.7 | 2.6 | 0.00 | 0.00 | 0.00 | 25 | 1001.7 |
| 20260505013527 | 73 | 269 | 1.7 | 2.6 | 0.00 | 0.00 | 0.00 | 25 | 1001.8 |
| 20260505013444 | 73 | 269 | 0.9 | 3.5 | 0.00 | 0.00 | 0.00 | 25 | 1001.8 |
| 20260505013331 | 73 | 269 | 1.7 | 3.5 | 0.00 | 0.00 | 0.00 | 25 | 1001.8 |
| 20260505013231 | 73 | 269 | 1.7 | 3.5 | 0.00 | 0.00 | 0.00 | 25 | 1001.8 |
| 20260505013131 | 73 | 269 | 1.7 | 3.5 | 0.00 | 0.00 | 0.00 | 24 | 1001.8 |
| 20260505013025 | 73 | 269 | 1.7 | 3.5 | 0.00 | 0.00 | 0.00 | 24 | 1001.8 |
| 20260505012946 | 73 | 269 | 0.9 | 3.5 | 0.00 | 0.00 | 0.00 | 24 | 1001.8 |
| 20260505012843 | 74 | 269 | 0.0 | 3.5 | 0.00 | 0.00 | 0.00 | 24 | 1001.8 |
| 20260505012723 | 74 | 269 | 0.9 | 3.5 | 0.00 | 0.00 | 0.00 | 24 | 1001.8 |
| 20260505012624 | 74 | 269 | 1.7 | 3.5 | 0.00 | 0.00 | 0.00 | 24 | 1001.8 |
| 20260505012520 | 74 | 269 | 2.6 | 3.5 | 0.00 | 0.00 | 0.00 | 24 | 1001.8 |
| 20260505012436 | 74 | 269 | 2.6 | 3.5 | 0.00 | 0.00 | 0.00 | 24 | 1001.8 |
| 20260505012317 | 74 | 269 | 2.6 | 3.5 | 0.00 | 0.00 | 0.00 | 24 | 1001.8 |
| 20260505012235 | 74 | 269 | 2.6 | 3.5 | 0.00 | 0.00 | 0.00 | 24 | 1001.8 |
| 20260505012152 | 74 | 269 | 3.5 | 3.5 | 0.00 | 0.00 | 0.00 | 24 | 1001.9 |
| 20260505012026 | 75 | 269 | 3.5 | 3.5 | 0.00 | 0.00 | 0.00 | 23 | 1001.8 |
| 20260505011927 | 75 | 269 | 3.5 | 3.5 | 0.00 | 0.00 | 0.00 | 23 | 1001.8 |
| 20260505011846 | 75 | 269 | 3.5 | 5.2 | 0.00 | 0.00 | 0.00 | 23 | 1001.8 |
| 20260505011725 | 75 | 269 | 3.5 | 5.2 | 0.00 | 0.00 | 0.00 | 23 | 1001.8 |
| 20260505011623 | 75 | 269 | 3.5 | 6.1 | 0.00 | 0.00 | 0.00 | 23 | 1001.8 |
| 20260505011517 | 75 | 269 | 3.5 | 6.1 | 0.00 | 0.00 | 0.00 | 23 | 1001.7 |
| 20260505011434 | 75 | 269 | 3.5 | 6.1 | 0.00 | 0.00 | 0.00 | 22 | 1001.7 |
| 20260505011334 | 76 | 269 | 3.5 | 6.1 | 0.00 | 0.00 | 0.00 | 22 | 1001.7 |
| 20260505011232 | 76 | 269 | 2.6 | 6.1 | 0.00 | 0.00 | 0.00 | 22 | 1001.7 |
| 20260505011155 | 76 | 269 | 2.6 | 6.1 | 0.00 | 0.00 | 0.00 | 22 | 1001.7 |
| 20260505011027 | 76 | 272 | 3.5 | 6.1 | 0.00 | 0.00 | 0.00 | 22 | 1001.7 |
| 20260505010932 | 76 | 271 | 4.3 | 6.1 | 0.00 | 0.00 | 0.00 | 21 | 1001.7 |
| 20260505010834 | 76 | 271 | 5.2 | 6.1 | 0.00 | 0.00 | 0.00 | 21 | 1001.8 |
| 20260505010730 | 77 | 269 | 5.2 | 6.1 | 0.00 | 0.00 | 0.00 | 21 | 1001.8 |
| 20260505010628 | 77 | 267 | 5.2 | 6.1 | 0.00 | 0.00 | 0.00 | 21 | 1001.7 |
| 20260505010525 | 77 | 275 | 5.2 | 6.1 | 0.00 | 0.00 | 0.00 | 21 | 1001.7 |
| 20260505010423 | 77 | 275 | 5.2 | 6.1 | 0.00 | 0.00 | 0.00 | 20 | 1001.8 |
| 20260505010322 | 77 | 279 | 5.2 | 6.1 | 0.00 | 0.00 | 0.00 | 20 | 1001.7 |
| 20260505010223 | 77 | 264 | 5.2 | 6.1 | 0.00 | 0.00 | 0.00 | 20 | 1001.8 |
| 20260505010140 | 77 | 266 | 5.2 | 7.0 | 0.00 | 0.00 | 0.00 | 20 | 1001.8 |
| 20260505010033 | 77 | 273 | 5.2 | 7.0 | 0.00 | 0.00 | 0.00 | 20 | 1001.7 |
| 20260505005931 | 78 | 275 | 4.3 | 7.0 | 0.00 | 0.00 | 0.00 | 20 | 1001.7 |
| 20260505005830 | 78 | 270 | 4.3 | 7.0 | 0.00 | 0.00 | 0.00 | 20 | 1001.7 |
| 20260505005730 | 78 | 277 | 4.3 | 7.0 | 0.00 | 0.00 | 0.00 | 20 | 1001.7 |
| 20260505005628 | 78 | 277 | 5.2 | 7.0 | 0.00 | 0.00 | 0.00 | 20 | 1001.7 |
| 20260505005527 | 78 | 270 | 5.2 | 7.0 | 0.00 | 0.00 | 0.00 | 19 | 1001.7 |
| 20260505005425 | 78 | 262 | 5.2 | 7.0 | 0.00 | 0.00 | 0.00 | 19 | 1001.7 |
| 20260505005323 | 78 | 266 | 5.2 | 7.0 | 0.00 | 0.00 | 0.00 | 19 | 1001.6 |
| 20260505005220 | 79 | 265 | 5.2 | 7.0 | 0.00 | 0.00 | 0.00 | 19 | 1001.7 |
| 20260505005141 | 79 | 264 | 5.2 | 6.1 | 0.00 | 0.00 | 0.00 | 19 | 1001.7 |
| 20260505005016 | 79 | 271 | 4.3 | 6.1 | 0.00 | 0.00 | 0.00 | 19 | 1001.8 |
| 20260505004913 | 79 | 262 | 4.3 | 6.1 | 0.00 | 0.00 | 0.00 | 19 | 1001.7 |
| 20260505004820 | 79 | 271 | 4.3 | 7.0 | 0.00 | 0.00 | 0.00 | 19 | 1001.7 |
| 20260505004717 | 79 | 265 | 4.3 | 7.0 | 0.00 | 0.00 | 0.00 | 19 | 1001.7 |
| 20260505004617 | 79 | 266 | 4.3 | 7.0 | 0.00 | 0.00 | 0.00 | 19 | 1001.7 |
| 20260505004531 | 79 | 267 | 4.3 | 7.0 | 0.00 | 0.00 | 0.00 | 19 | 1001.7 |
| 20260505004428 | 79 | 265 | 4.3 | 7.8 | 0.00 | 0.00 | 0.00 | 19 | 1001.7 |
| 20260505004326 | 79 | 264 | 5.2 | 8.7 | 0.00 | 0.00 | 0.00 | 19 | 1001.7 |
| 20260505004224 | 80 | 261 | 5.2 | 8.7 | 0.00 | 0.00 | 0.00 | 19 | 1001.7 |
| 20260505004121 | 80 | 262 | 5.2 | 8.7 | 0.00 | 0.00 | 0.00 | 19 | 1001.8 |
| 20260505004020 | 80 | 267 | 6.1 | 8.7 | 0.00 | 0.00 | 0.00 | 18 | 1001.8 |
| 20260505003921 | 80 | 263 | 6.1 | 8.7 | 0.00 | 0.00 | 0.00 | 18 | 1001.8 |
| 20260505003820 | 80 | 271 | 6.1 | 8.7 | 0.00 | 0.00 | 0.00 | 18 | 1001.8 |
| 20260505003715 | 80 | 267 | 6.1 | 8.7 | 0.00 | 0.00 | 0.00 | 18 | 1001.8 |
| 20260505003635 | 80 | 267 | 6.1 | 8.7 | 0.00 | 0.00 | 0.00 | 18 | 1001.8 |
| 20260505003529 | 80 | 261 | 7.0 | 8.7 | 0.00 | 0.00 | 0.00 | 18 | 1001.9 |
| 20260505003425 | 80 | 274 | 7.0 | 9.6 | 0.00 | 0.00 | 0.00 | 18 | 1001.8 |
| 20260505003324 | 80 | 251 | 6.1 | 9.6 | 0.00 | 0.00 | 0.00 | 18 | 1001.9 |
| 20260505003219 | 80 | 269 | 5.2 | 9.6 | 0.00 | 0.00 | 0.00 | 18 | 1001.9 |
| 20260505003141 | 80 | 270 | 5.2 | 9.6 | 0.00 | 0.00 | 0.00 | 19 | 1001.9 |
| 20260505003035 | 80 | 272 | 5.2 | 9.6 | 0.00 | 0.00 | 0.00 | 19 | 1001.9 |
| 20260505002931 | 80 | 262 | 6.1 | 9.6 | 0.00 | 0.00 | 0.00 | 18 | 1002.0 |
| 20260505002816 | 81 | 279 | 5.2 | 9.6 | 0.00 | 0.00 | 0.00 | 18 | 1002.0 |
| 20260505002735 | 81 | 273 | 5.2 | 9.6 | 0.00 | 0.00 | 0.00 | 18 | 1002.0 |
| 20260505002635 | 81 | 278 | 7.0 | 9.6 | 0.00 | 0.00 | 0.00 | 18 | 1002.0 |
| 20260505002531 | 81 | 278 | 7.0 | 9.6 | 0.00 | 0.00 | 0.00 | 18 | 1002.0 |
| 20260505002415 | 81 | 278 | 6.1 | 8.7 | 0.00 | 0.00 | 0.00 | 18 | 1002.0 |
| 20260505002337 | 81 | 279 | 6.1 | 8.7 | 0.00 | 0.00 | 0.00 | 18 | 1002.0 |
| 20260505002256 | 81 | 277 | 6.1 | 9.6 | 0.00 | 0.00 | 0.00 | 18 | 1002.0 |
| 20260505002132 | 81 | 279 | 6.1 | 11.3 | 0.00 | 0.00 | 0.00 | 18 | 1002.0 |
| 20260505002025 | 81 | 268 | 6.1 | 11.3 | 0.00 | 0.00 | 0.00 | 18 | 1002.0 |
| 20260505001941 | 81 | 269 | 7.0 | 12.2 | 0.00 | 0.00 | 0.00 | 18 | 1002.0 |
| 20260505001821 | 81 | 275 | 7.0 | 12.2 | 0.00 | 0.00 | 0.00 | 17 | 1002.0 |
| 20260505001718 | 81 | 281 | 7.0 | 12.2 | 0.00 | 0.00 | 0.00 | 17 | 1001.9 |
| 20260505001618 | 81 | 271 | 7.0 | 12.2 | 0.00 | 0.00 | 0.00 | 17 | 1002.0 |
| 20260505001518 | 81 | 279 | 7.0 | 12.2 | 0.00 | 0.00 | 0.00 | 17 | 1002.0 |
| 20260505001416 | 81 | 283 | 7.8 | 13.0 | 0.00 | 0.00 | 0.00 | 17 | 1002.0 |
| 20260505001335 | 81 | 271 | 8.7 | 13.0 | 0.00 | 0.00 | 0.00 | 17 | 1002.0 |
| 20260505001232 | 81 | 267 | 9.6 | 13.0 | 0.00 | 0.00 | 0.00 | 16 | 1002.0 |
| 20260505001132 | 81 | 265 | 10.4 | 13.0 | 0.00 | 0.00 | 0.00 | 16 | 1002.0 |
| 20260505001027 | 81 | 263 | 9.6 | 13.0 | 0.00 | 0.00 | 0.00 | 17 | 1002.0 |
| 20260505000947 | 81 | 261 | 9.6 | 13.0 | 0.00 | 0.00 | 0.00 | 17 | 1002.0 |
| 20260505000829 | 81 | 268 | 8.7 | 13.0 | 0.00 | 0.00 | 0.00 | 17 | 1002.0 |
| 20260505000726 | 81 | 265 | 9.6 | 13.0 | 0.00 | 0.00 | 0.00 | 17 | 1002.0 |
| 20260505000623 | 81 | 256 | 9.6 | 13.0 | 0.00 | 0.00 | 0.00 | 17 | 1002.0 |
| 20260505000537 | 82 | 265 | 10.4 | 13.0 | 0.00 | 0.00 | 0.00 | 17 | 1002.0 |
| 20260505000434 | 82 | 295 | 10.4 | 13.0 | 0.00 | 0.00 | 0.00 | 17 | 1001.9 |
| 20260505000336 | 82 | 305 | 9.6 | 13.0 | 0.00 | 0.00 | 0.00 | 17 | 1001.8 |
| 20260505000213 | 82 | 300 | 9.6 | 11.3 | 0.00 | 0.00 | 0.00 | 17 | 1001.9 |
| 20260505000117 | 82 | 284 | 8.7 | 11.3 | 0.00 | 0.00 | 0.00 | 17 | 1001.9 |
| 20260505000031 | 82 | 286 | 8.7 | 11.3 | 0.00 | 0.00 | 0.00 | 17 | 1002.0 |
| 20260504235928 | 82 | 290 | 7.8 | 12.2 | 0.00 | 0.00 | 0.00 | 17 | 1002.0 |
| 20260504235827 | 82 | 308 | 7.0 | 12.2 | 0.00 | 0.00 | 0.00 | 17 | 1002.0 |
| 20260504235723 | 82 | 296 | 6.1 | 12.2 | 0.00 | 0.00 | 0.00 | 17 | 1002.0 |
| 20260504235620 | 82 | 294 | 6.1 | 12.2 | 0.00 | 0.00 | 0.00 | 17 | 1002.0 |
| 20260504235534 | 82 | 296 | 6.1 | 12.2 | 0.00 | 0.00 | 0.00 | 17 | 1002.0 |
| 20260504235434 | 82 | 301 | 7.0 | 12.2 | 0.00 | 0.00 | 0.00 | 17 | 1002.0 |
| 20260504235333 | 82 | 301 | 7.0 | 12.2 | 0.00 | 0.00 | 0.00 | 17 | 1002.0 |
| 20260504235254 | 82 | 274 | 7.0 | 12.2 | 0.00 | 0.00 | 0.00 | 17 | 1002.0 |
| 20260504235150 | 82 | 290 | 7.0 | 12.2 | 0.00 | 0.00 | 0.00 | 17 | 1002.0 |
| 20260504235023 | 82 | 293 | 7.8 | 12.2 | 0.00 | 0.00 | 0.00 | 17 | 1002.1 |
| 20260504234920 | 82 | 290 | 8.7 | 12.2 | 0.00 | 0.00 | 0.00 | 17 | 1002.0 |
| 20260504234821 | 82 | 303 | 8.7 | 12.2 | 0.00 | 0.00 | 0.00 | 17 | 1002.1 |
| 20260504234721 | 82 | 299 | 9.6 | 12.2 | 0.00 | 0.00 | 0.00 | 17 | 1002.1 |
| 20260504234618 | 82 | 292 | 9.6 | 12.2 | 0.00 | 0.00 | 0.00 | 17 | 1002.1 |
| 20260504234533 | 82 | 296 | 8.7 | 12.2 | 0.00 | 0.00 | 0.00 | 17 | 1002.1 |
| 20260504234449 | 82 | 288 | 8.7 | 12.2 | 0.00 | 0.00 | 0.00 | 17 | 1002.2 |
| 20260504234330 | 82 | 298 | 8.7 | 13.9 | 0.00 | 0.00 | 0.00 | 17 | 1002.1 |
| 20260504234226 | 82 | 296 | 8.7 | 13.9 | 0.00 | 0.00 | 0.00 | 16 | 1002.2 |
| 20260504234126 | 82 | 288 | 8.7 | 13.9 | 0.00 | 0.00 | 0.00 | 17 | 1002.2 |
| 20260504234020 | 82 | 294 | 7.8 | 13.9 | 0.00 | 0.00 | 0.00 | 17 | 1002.2 |
| 20260504233917 | 82 | 309 | 8.7 | 13.9 | 0.00 | 0.00 | 0.00 | 17 | 1002.2 |
| 20260504233819 | 82 | 310 | 8.7 | 13.9 | 0.00 | 0.00 | 0.00 | 17 | 1002.2 |
| 20260504233716 | 82 | 299 | 8.7 | 13.9 | 0.00 | 0.00 | 0.00 | 17 | 1002.2 |
| 20260504233638 | 82 | 294 | 7.8 | 13.9 | 0.00 | 0.00 | 0.00 | 17 | 1002.2 |
| 20260504233531 | 82 | 310 | 9.6 | 13.9 | 0.00 | 0.00 | 0.00 | 17 | 1002.2 |
| 20260504233431 | 82 | 319 | 10.4 | 13.9 | 0.00 | 0.00 | 0.00 | 17 | 1002.2 |
| 20260504233330 | 82 | 317 | 9.6 | 13.9 | 0.00 | 0.00 | 0.00 | 17 | 1002.2 |
| 20260504233226 | 82 | 288 | 9.6 | 13.0 | 0.00 | 0.00 | 0.00 | 17 | 1002.2 |
| 20260504233127 | 82 | 275 | 10.4 | 13.0 | 0.00 | 0.00 | 0.00 | 17 | 1002.2 |
| 20260504233044 | 82 | 281 | 10.4 | 13.0 | 0.00 | 0.00 | 0.00 | 17 | 1002.2 |
| 20260504232921 | 82 | 270 | 9.6 | 13.0 | 0.00 | 0.00 | 0.00 | 17 | 1002.2 |
| 20260504232823 | 82 | 268 | 9.6 | 13.0 | 0.00 | 0.00 | 0.00 | 18 | 1002.2 |
| 20260504232726 | 82 | 271 | 8.7 | 12.2 | 0.00 | 0.00 | 0.00 | 18 | 1002.2 |
| 20260504232624 | 82 | 280 | 7.8 | 12.2 | 0.00 | 0.00 | 0.00 | 17 | 1002.2 |
| 20260504232521 | 82 | 288 | 7.0 | 10.4 | 0.00 | 0.00 | 0.00 | 17 | 1002.2 |
| 20260504232419 | 82 | 261 | 6.1 | 10.4 | 0.00 | 0.00 | 0.00 | 17 | 1002.2 |
| 20260504232318 | 82 | 302 | 7.8 | 10.4 | 0.00 | 0.00 | 0.00 | 17 | 1002.2 |
| 20260504232234 | 82 | 300 | 8.7 | 10.4 | 0.00 | 0.00 | 0.00 | 17 | 1002.2 |
| 20260504232118 | 82 | 288 | 7.0 | 10.4 | 0.00 | 0.00 | 0.00 | 18 | 1002.2 |
| 20260504232032 | 82 | 269 | 6.1 | 10.4 | 0.00 | 0.00 | 0.00 | 17 | 1002.2 |
| 20260504231949 | 82 | 283 | 6.1 | 10.4 | 0.00 | 0.00 | 0.00 | 17 | 1002.1 |
| 20260504231830 | 82 | 281 | 6.1 | 11.3 | 0.00 | 0.00 | 0.00 | 17 | 1002.2 |
| 20260504231727 | 82 | 274 | 6.1 | 11.3 | 0.00 | 0.00 | 0.00 | 17 | 1002.2 |
| 20260504231644 | 82 | 253 | 7.8 | 11.3 | 0.00 | 0.00 | 0.00 | 17 | 1002.1 |
| 20260504231520 | 82 | 279 | 7.8 | 11.3 | 0.00 | 0.00 | 0.00 | 17 | 1002.1 |
| 20260504231416 | 82 | 287 | 6.1 | 11.3 | 0.00 | 0.00 | 0.00 | 17 | 1002.1 |
| 20260504231336 | 82 | 290 | 5.2 | 11.3 | 0.00 | 0.00 | 0.00 | 17 | 1002.1 |
| 20260504231217 | 82 | 292 | 7.0 | 11.3 | 0.00 | 0.00 | 0.00 | 16 | 1002.1 |
| 20260504231134 | 82 | 279 | 8.7 | 11.3 | 0.00 | 0.00 | 0.00 | 17 | 1002.1 |
| 20260504231027 | 82 | 275 | 8.7 | 11.3 | 0.00 | 0.00 | 0.00 | 16 | 1002.1 |
| 20260504230944 | 82 | 296 | 8.7 | 12.2 | 0.00 | 0.00 | 0.00 | 17 | 1002.1 |
| 20260504230821 | 82 | 280 | 7.8 | 12.2 | 0.00 | 0.00 | 0.00 | 17 | 1002.2 |
| 20260504230723 | 82 | 287 | 7.0 | 13.0 | 0.00 | 0.00 | 0.00 | 17 | 1002.2 |
| 20260504230621 | 82 | 306 | 7.8 | 13.0 | 0.00 | 0.00 | 0.00 | 17 | 1002.1 |
| 20260504230518 | 82 | 311 | 7.8 | 13.0 | 0.00 | 0.00 | 0.00 | 17 | 1002.1 |
| 20260504230439 | 82 | 301 | 7.8 | 13.0 | 0.00 | 0.00 | 0.00 | 17 | 1002.1 |
| 20260504230321 | 82 | 282 | 7.8 | 13.0 | 0.00 | 0.00 | 0.00 | 17 | 1002.2 |
| 20260504230237 | 82 | 279 | 8.7 | 13.0 | 0.00 | 0.00 | 0.00 | 17 | 1002.3 |
| 20260504230138 | 82 | 282 | 9.6 | 13.0 | 0.00 | 0.00 | 0.00 | 17 | 1002.2 |
| 20260504230038 | 82 | 279 | 10.4 | 13.0 | 0.00 | 0.00 | 0.00 | 17 | 1002.2 |
| 20260504225935 | 82 | 278 | 11.3 | 13.0 | 0.00 | 0.00 | 0.00 | 17 | 1002.2 |
| 20260504225834 | 82 | 298 | 9.6 | 13.0 | 0.00 | 0.00 | 0.00 | 17 | 1002.3 |
| 20260504225732 | 83 | 272 | 7.8 | 13.0 | 0.00 | 0.00 | 0.00 | 17 | 1002.2 |
| 20260504225629 | 83 | 281 | 8.7 | 13.9 | 0.00 | 0.00 | 0.00 | 17 | 1002.2 |
| 20260504225522 | 83 | 290 | 9.6 | 13.9 | 0.00 | 0.00 | 0.00 | 17 | 1002.2 |
| 20260504225423 | 83 | 284 | 9.6 | 13.9 | 0.00 | 0.00 | 0.00 | 17 | 1002.1 |
| 20260504225321 | 83 | 271 | 8.7 | 13.9 | 0.00 | 0.00 | 0.00 | 17 | 1002.2 |
| 20260504225219 | 83 | 277 | 8.7 | 13.9 | 0.00 | 0.00 | 0.00 | 16 | 1002.3 |
| 20260504225136 | 83 | 277 | 7.8 | 13.9 | 0.00 | 0.00 | 0.00 | 16 | 1002.2 |
| 20260504225031 | 83 | 290 | 7.8 | 13.9 | 0.00 | 0.00 | 0.00 | 16 | 1002.3 |
| 20260504224948 | 83 | 283 | 9.6 | 13.9 | 0.00 | 0.00 | 0.00 | 16 | 1002.3 |
| 20260504224824 | 83 | 273 | 9.6 | 13.9 | 0.00 | 0.00 | 0.00 | 16 | 1002.2 |
| 20260504224721 | 83 | 286 | 9.6 | 13.9 | 0.00 | 0.00 | 0.00 | 16 | 1002.2 |
| 20260504224619 | 83 | 287 | 8.7 | 13.0 | 0.00 | 0.00 | 0.00 | 17 | 1002.2 |
| 20260504224517 | 83 | 291 | 8.7 | 13.0 | 0.00 | 0.00 | 0.00 | 17 | 1002.2 |
| 20260504224438 | 83 | 277 | 8.7 | 13.0 | 0.00 | 0.00 | 0.00 | 16 | 1002.2 |
| 20260504224335 | 83 | 254 | 8.7 | 13.0 | 0.00 | 0.00 | 0.00 | 16 | 1002.3 |
| 20260504224233 | 84 | 281 | 9.6 | 13.9 | 0.00 | 0.00 | 0.00 | 17 | 1002.3 |
| 20260504224154 | 84 | 311 | 11.3 | 13.9 | 0.00 | 0.00 | 0.00 | 16 | 1002.3 |
| 20260504224030 | 84 | 282 | 11.3 | 13.9 | 0.00 | 0.00 | 0.00 | 17 | 1002.3 |
| 20260504223950 | 84 | 290 | 10.4 | 13.9 | 0.00 | 0.00 | 0.00 | 16 | 1002.3 |
| 20260504223829 | 84 | 288 | 8.7 | 14.8 | 0.00 | 0.00 | 0.00 | 17 | 1002.3 |
| 20260504223724 | 84 | 255 | 7.0 | 14.8 | 0.00 | 0.00 | 0.00 | 17 | 1002.3 |
| 20260504223629 | 84 | 255 | 7.8 | 15.6 | 0.00 | 0.00 | 0.00 | 17 | 1002.2 |
| 20260504223526 | 83 | 279 | 8.7 | 15.6 | 0.00 | 0.00 | 0.00 | 16 | 1002.3 |
| 20260504223424 | 84 | 253 | 9.6 | 15.6 | 0.00 | 0.00 | 0.00 | 16 | 1002.3 |
| 20260504223322 | 84 | 256 | 10.4 | 15.6 | 0.00 | 0.00 | 0.00 | 16 | 1002.3 |
| 20260504223239 | 84 | 258 | 10.4 | 15.6 | 0.00 | 0.00 | 0.00 | 16 | 1002.3 |
| 20260504223139 | 84 | 254 | 10.4 | 15.6 | 0.00 | 0.00 | 0.00 | 16 | 1002.3 |
| 20260504223012 | 84 | 256 | 10.4 | 15.6 | 0.00 | 0.00 | 0.00 | 16 | 1002.3 |
| 20260504222932 | 84 | 262 | 11.3 | 15.6 | 0.00 | 0.00 | 0.00 | 16 | 1002.3 |
| 20260504222830 | 84 | 252 | 11.3 | 15.6 | 0.00 | 0.00 | 0.00 | 16 | 1002.4 |
| 20260504222731 | 84 | 261 | 12.2 | 15.6 | 0.00 | 0.00 | 0.00 | 16 | 1002.4 |
| 20260504222627 | 84 | 256 | 11.3 | 15.6 | 0.00 | 0.00 | 0.00 | 16 | 1002.4 |
| 20260504222524 | 84 | 268 | 11.3 | 15.6 | 0.00 | 0.00 | 0.00 | 16 | 1002.4 |
| 20260504222421 | 84 | 252 | 11.3 | 15.6 | 0.00 | 0.00 | 0.00 | 16 | 1002.4 |
| 20260504222342 | 84 | 252 | 11.3 | 14.8 | 0.00 | 0.00 | 0.00 | 17 | 1002.4 |
| 20260504222220 | 84 | 265 | 10.4 | 13.0 | 0.00 | 0.00 | 0.00 | 17 | 1002.4 |
| 20260504222118 | 83 | 257 | 7.8 | 13.0 | 0.00 | 0.00 | 0.00 | 17 | 1002.4 |
| 20260504222019 | 83 | 283 | 7.0 | 12.2 | 0.00 | 0.00 | 0.00 | 16 | 1002.4 |
| 20260504221920 | 83 | 295 | 7.8 | 12.2 | 0.00 | 0.00 | 0.00 | 16 | 1002.4 |
| 20260504221820 | 83 | 273 | 7.8 | 12.2 | 0.00 | 0.00 | 0.00 | 16 | 1002.4 |
| 20260504221717 | 83 | 291 | 7.8 | 12.2 | 0.00 | 0.00 | 0.00 | 17 | 1002.4 |
| 20260504221638 | 83 | 298 | 7.0 | 12.2 | 0.00 | 0.00 | 0.00 | 17 | 1002.4 |
| 20260504221532 | 83 | 281 | 5.2 | 12.2 | 0.00 | 0.00 | 0.00 | 17 | 1002.4 |
| 20260504221430 | 83 | 291 | 4.3 | 13.9 | 0.00 | 0.00 | 0.00 | 17 | 1002.4 |
| 20260504221328 | 83 | 255 | 6.1 | 13.9 | 0.00 | 0.00 | 0.00 | 17 | 1002.4 |
| 20260504221233 | 83 | 265 | 7.8 | 13.9 | 0.00 | 0.00 | 0.00 | 16 | 1002.4 |
| 20260504221135 | 83 | 306 | 8.7 | 13.9 | 0.00 | 0.00 | 0.00 | 16 | 1002.4 |
| 20260504221028 | 83 | 298 | 7.0 | 13.9 | 0.00 | 0.00 | 0.00 | 17 | 1002.4 |
| 20260504220926 | 83 | 290 | 6.1 | 13.9 | 0.00 | 0.00 | 0.00 | 17 | 1002.4 |
| 20260504220825 | 83 | 308 | 6.1 | 13.9 | 0.00 | 0.00 | 0.00 | 17 | 1002.5 |
| 20260504220720 | 83 | 292 | 8.7 | 14.8 | 0.00 | 0.00 | 0.00 | 17 | 1002.5 |
| 20260504220617 | 83 | 312 | 10.4 | 16.5 | 0.00 | 0.00 | 0.00 | 17 | 1002.5 |
| 20260504220531 | 83 | 303 | 10.4 | 16.5 | 0.00 | 0.00 | 0.00 | 17 | 1002.5 |
| 20260504220435 | 83 | 294 | 10.4 | 16.5 | 0.00 | 0.00 | 0.00 | 17 | 1002.5 |
| 20260504220335 | 83 | 288 | 9.6 | 19.1 | 0.00 | 0.00 | 0.00 | 17 | 1002.6 |
| 20260504220233 | 83 | 287 | 8.7 | 19.1 | 0.00 | 0.00 | 0.00 | 17 | 1002.6 |
| 20260504220133 | 83 | 269 | 8.7 | 19.1 | 0.00 | 0.00 | 0.00 | 17 | 1002.6 |
| 20260504220028 | 83 | 282 | 8.7 | 19.1 | 0.00 | 0.00 | 0.00 | 17 | 1002.6 |
| 20260504215945 | 83 | 276 | 10.4 | 19.1 | 0.00 | 0.00 | 0.00 | 16 | 1002.6 |
| 20260504215823 | 83 | 277 | 12.2 | 19.1 | 0.00 | 0.00 | 0.00 | 17 | 1002.6 |
| 20260504215718 | 83 | 282 | 13.0 | 19.1 | 0.00 | 0.00 | 0.00 | 17 | 1002.6 |
| 20260504215620 | 83 | 278 | 13.9 | 19.1 | 0.00 | 0.00 | 0.00 | 17 | 1002.6 |
| 20260504215537 | 84 | 287 | 13.9 | 19.1 | 0.00 | 0.00 | 0.00 | 17 | 1002.6 |
| 20260504215434 | 83 | 277 | 12.2 | 19.1 | 0.00 | 0.00 | 0.00 | 17 | 1002.4 |
| 20260504215333 | 84 | 238 | 10.4 | 16.5 | 0.00 | 0.00 | 0.00 | 16 | 1002.6 |
| 20260504215255 | 84 | 256 | 10.4 | 14.8 | 0.00 | 0.00 | 0.00 | 16 | 1002.6 |
| 20260504215156 | 84 | 246 | 11.3 | 14.8 | 0.00 | 0.00 | 0.00 | 16 | 1002.7 |
| 20260504215029 | 84 | 259 | 10.4 | 14.8 | 0.00 | 0.00 | 0.00 | 17 | 1002.7 |
| 20260504214930 | 84 | 274 | 10.4 | 14.8 | 0.00 | 0.00 | 0.00 | 17 | 1002.7 |
| 20260504214829 | 84 | 263 | 10.4 | 14.8 | 0.00 | 0.00 | 0.00 | 17 | 1002.7 |
| 20260504214731 | 84 | 281 | 10.4 | 14.8 | 0.00 | 0.00 | 0.00 | 17 | 1002.7 |
| 20260504214628 | 84 | 290 | 9.6 | 15.6 | 0.00 | 0.00 | 0.00 | 17 | 1002.8 |
| 20260504214522 | 84 | 264 | 9.6 | 19.1 | 0.00 | 0.00 | 0.00 | 17 | 1002.8 |
| 20260504214420 | 83 | 257 | 8.7 | 19.1 | 0.00 | 0.00 | 0.00 | 17 | 1002.8 |
| 20260504214341 | 83 | 257 | 7.8 | 19.1 | 0.00 | 0.00 | 0.00 | 16 | 1002.8 |
| 20260504214216 | 83 | 250 | 9.6 | 19.1 | 0.00 | 0.00 | 0.00 | 17 | 1002.8 |
| 20260504214135 | 83 | 248 | 9.6 | 19.1 | 0.00 | 0.00 | 0.00 | 17 | 1002.8 |
| 20260504214049 | 83 | 276 | 9.6 | 19.1 | 0.00 | 0.00 | 0.00 | 17 | 1002.8 |
| 20260504213925 | 83 | 267 | 11.3 | 19.1 | 0.00 | 0.00 | 0.00 | 17 | 1002.9 |
| 20260504213828 | 83 | 251 | 12.2 | 19.1 | 0.00 | 0.00 | 0.00 | 16 | 1003.0 |
| 20260504213724 | 83 | 264 | 13.9 | 19.1 | 0.00 | 0.00 | 0.00 | 16 | 1003.1 |
| 20260504213641 | 83 | 234 | 15.6 | 20.0 | 0.00 | 0.00 | 0.00 | 16 | 1003.0 |
| 20260504213534 | 83 | 220 | 15.6 | 20.0 | 0.00 | 0.00 | 0.00 | 16 | 1002.9 |
| 20260504213455 | 83 | 244 | 13.9 | 18.2 | 0.00 | 0.00 | 0.00 | 16 | 1003.0 |
| 20260504213334 | 83 | 245 | 13.0 | 16.5 | 0.00 | 0.00 | 0.00 | 16 | 1002.9 |
| 20260504213233 | 83 | 263 | 10.4 | 16.5 | 0.00 | 0.00 | 0.00 | 17 | 1002.9 |
| 20260504213154 | 83 | 246 | 7.8 | 16.5 | 0.00 | 0.00 | 0.00 | 17 | 1003.0 |
| 20260504213028 | 83 | 247 | 7.0 | 20.0 | 0.00 | 0.00 | 0.00 | 17 | 1003.0 |
| 20260504212949 | 83 | 244 | 7.8 | 20.0 | 0.00 | 0.00 | 0.00 | 17 | 1003.1 |
| 20260504212834 | 83 | 255 | 8.7 | 20.0 | 0.00 | 0.00 | 0.00 | 17 | 1003.1 |
| 20260504212754 | 83 | 271 | 9.6 | 20.0 | 0.00 | 0.00 | 0.00 | 17 | 1003.1 |
| 20260504212630 | 83 | 270 | 7.8 | 20.0 | 0.00 | 0.00 | 0.00 | 17 | 1003.1 |
| 20260504212523 | 83 | 276 | 7.0 | 20.0 | 0.00 | 0.00 | 0.00 | 16 | 1003.1 |
| 20260504212424 | 83 | 261 | 7.8 | 21.7 | 0.00 | 0.00 | 0.00 | 16 | 1003.3 |
| 20260504212324 | 83 | 247 | 11.3 | 21.7 | 0.00 | 0.00 | 0.00 | 17 | 1003.3 |
| 20260504212223 | 83 | 256 | 13.9 | 21.7 | 0.00 | 0.00 | 0.00 | 16 | 1003.3 |
| 20260504212140 | 83 | 247 | 13.9 | 21.7 | 0.00 | 0.00 | 0.00 | 16 | 1003.2 |
| 20260504212017 | 83 | 245 | 11.3 | 21.7 | 0.00 | 0.00 | 0.00 | 17 | 1003.2 |
| 20260504211915 | 83 | 279 | 9.6 | 21.7 | 0.00 | 0.00 | 0.00 | 17 | 1003.2 |
| 20260504211833 | 83 | 270 | 9.6 | 21.7 | 0.00 | 0.00 | 0.00 | 17 | 1003.3 |
| 20260504211730 | 83 | 269 | 11.3 | 21.7 | 0.00 | 0.00 | 0.00 | 16 | 1003.3 |
| 20260504211627 | 84 | 258 | 14.8 | 21.7 | 0.00 | 0.00 | 0.00 | 16 | 1003.3 |
| 20260504211525 | 84 | 265 | 17.4 | 21.7 | 0.00 | 0.00 | 0.00 | 16 | 1003.3 |
| 20260504211423 | 84 | 274 | 17.4 | 21.7 | 0.00 | 0.00 | 0.00 | 17 | 1003.3 |
| 20260504211327 | 84 | 267 | 13.9 | 20.0 | 0.00 | 0.00 | 0.00 | 16 | 1003.3 |
| 20260504211224 | 84 | 250 | 10.4 | 19.1 | 0.00 | 0.00 | 0.00 | 17 | 1003.3 |
| 20260504211122 | 84 | 256 | 10.4 | 18.2 | 0.00 | 0.00 | 0.00 | 17 | 1003.4 |
| 20260504211035 | 84 | 259 | 10.4 | 18.2 | 0.00 | 0.00 | 0.00 | 17 | 1003.4 |
| 20260504210934 | 83 | 267 | 10.4 | 18.2 | 0.00 | 0.00 | 0.00 | 17 | 1003.4 |
| 20260504210832 | 83 | 267 | 11.3 | 18.2 | 0.00 | 0.00 | 0.00 | 17 | 1003.5 |
| 20260504210727 | 83 | 273 | 13.9 | 18.2 | 0.00 | 0.00 | 0.00 | 16 | 1003.5 |
| 20260504210645 | 83 | 254 | 15.6 | 18.2 | 0.00 | 0.00 | 0.00 | 17 | 1003.5 |
| 20260504210537 | 83 | 264 | 13.9 | 18.2 | 0.00 | 0.00 | 0.00 | 17 | 1003.4 |
| 20260504210416 | 83 | 263 | 12.2 | 17.4 | 0.00 | 0.00 | 0.00 | 17 | 1003.5 |
| 20260504210319 | 83 | 248 | 11.3 | 17.4 | 0.00 | 0.00 | 0.00 | 16 | 1003.5 |
| 20260504210239 | 83 | 253 | 11.3 | 19.1 | 0.00 | 0.00 | 0.00 | 16 | 1003.5 |
| 20260504210116 | 83 | 247 | 13.0 | 19.1 | 0.00 | 0.00 | 0.00 | 16 | 1003.6 |
| 20260504210029 | 83 | 246 | 13.9 | 19.1 | 0.00 | 0.00 | 0.00 | 17 | 1003.6 |
| 20260504205926 | 83 | 259 | 13.9 | 19.1 | 0.00 | 0.00 | 0.00 | 17 | 1003.6 |
| 20260504205845 | 83 | 264 | 13.0 | 19.1 | 0.00 | 0.00 | 0.00 | 17 | 1003.6 |
| 20260504205801 | 83 | 268 | 12.2 | 19.1 | 0.00 | 0.00 | 0.00 | 17 | 1003.7 |
| 20260504205657 | 83 | 269 | 12.2 | 19.1 | 0.00 | 0.00 | 0.00 | 17 | 1003.7 |
| 20260504205550 | 83 | 271 | 13.9 | 19.1 | 0.00 | 0.00 | 0.00 | 17 | 1003.7 |
| 20260504205432 | 83 | 269 | 14.8 | 19.1 | 0.00 | 0.00 | 0.00 | 17 | 1003.6 |
| 20260504205334 | 83 | 267 | 13.9 | 19.1 | 0.00 | 0.00 | 0.00 | 17 | 1003.6 |
| 20260504205234 | 83 | 269 | 11.3 | 18.2 | 0.00 | 0.00 | 0.00 | 17 | 1003.6 |
| 20260504205133 | 83 | 250 | 9.6 | 19.1 | 0.00 | 0.00 | 0.00 | 17 | 1003.6 |
| 20260504205047 | 83 | 285 | 8.7 | 19.1 | 0.00 | 0.00 | 0.00 | 18 | 1003.7 |
| 20260504204943 | 83 | 271 | 8.7 | 19.1 | 0.00 | 0.00 | 0.00 | 17 | 1003.7 |
| 20260504204824 | 82 | 261 | 10.4 | 19.1 | 0.00 | 0.00 | 0.00 | 17 | 1003.8 |
| 20260504204719 | 83 | 284 | 12.2 | 19.1 | 0.00 | 0.00 | 0.00 | 17 | 1003.9 |
| 20260504204635 | 83 | 271 | 12.2 | 19.1 | 0.00 | 0.00 | 0.00 | 17 | 1003.9 |
| 20260504204550 | 83 | 271 | 13.9 | 20.0 | 0.00 | 0.00 | 0.00 | 17 | 1003.8 |
| 20260504204417 | 83 | 271 | 15.6 | 20.0 | 0.00 | 0.00 | 0.00 | 17 | 1003.8 |
| 20260504204318 | 83 | 273 | 13.9 | 20.0 | 0.00 | 0.00 | 0.00 | 17 | 1003.8 |
| 20260504204234 | 83 | 267 | 13.9 | 20.0 | 0.00 | 0.00 | 0.00 | 17 | 1003.8 |
| 20260504204131 | 83 | 232 | 13.0 | 21.7 | 0.00 | 0.00 | 0.00 | 17 | 1003.8 |
| 20260504204024 | 83 | 261 | 12.2 | 21.7 | 0.00 | 0.00 | 0.00 | 17 | 1003.9 |
| 20260504203920 | 82 | 270 | 11.3 | 21.7 | 0.00 | 0.00 | 0.00 | 17 | 1003.9 |
| 20260504203822 | 83 | 264 | 12.2 | 21.7 | 0.00 | 0.00 | 0.00 | 17 | 1003.9 |
| 20260504203717 | 83 | 267 | 13.9 | 21.7 | 0.00 | 0.00 | 0.00 | 17 | 1003.9 |
| 20260504203614 | 83 | 255 | 13.9 | 21.7 | 0.00 | 0.00 | 0.00 | 17 | 1003.9 |
| 20260504203532 | 83 | 265 | 12.2 | 21.7 | 0.00 | 0.00 | 0.00 | 17 | 1003.8 |
| 20260504203428 | 83 | 261 | 13.0 | 21.7 | 0.00 | 0.00 | 0.00 | 17 | 1003.9 |
| 20260504203334 | 83 | 241 | 14.8 | 21.7 | 0.00 | 0.00 | 0.00 | 17 | 1003.9 |
| 20260504203250 | 83 | 265 | 14.8 | 21.7 | 0.00 | 0.00 | 0.00 | 17 | 1004.0 |
| 20260504203127 | 83 | 270 | 14.8 | 21.7 | 0.00 | 0.00 | 0.00 | 17 | 1003.9 |
| 20260504203019 | 83 | 265 | 14.8 | 20.0 | 0.00 | 0.00 | 0.00 | 17 | 1004.0 |
| 20260504202939 | 83 | 264 | 15.6 | 20.0 | 0.00 | 0.00 | 0.00 | 17 | 1003.9 |
| 20260504202820 | 83 | 269 | 14.8 | 19.1 | 0.00 | 0.00 | 0.00 | 17 | 1004.0 |
| 20260504202716 | 83 | 250 | 14.8 | 20.0 | 0.00 | 0.00 | 0.00 | 17 | 1004.0 |
| 20260504202615 | 83 | 232 | 14.8 | 21.7 | 0.00 | 0.00 | 0.00 | 17 | 1003.9 |
| 20260504202516 | 83 | 237 | 14.8 | 22.6 | 0.00 | 0.00 | 0.00 | 17 | 1004.0 |
| 20260504202417 | 83 | 248 | 15.6 | 22.6 | 0.00 | 0.00 | 0.00 | 17 | 1004.0 |
| 20260504202336 | 83 | 244 | 15.6 | 22.6 | 0.00 | 0.00 | 0.00 | 17 | 1003.9 |
| 20260504202231 | 83 | 242 | 13.9 | 22.6 | 0.00 | 0.00 | 0.00 | 17 | 1004.0 |
| 20260504202149 | 83 | 233 | 12.2 | 22.6 | 0.00 | 0.00 | 0.00 | 17 | 1004.0 |
| 20260504202046 | 83 | 238 | 12.2 | 22.6 | 0.00 | 0.00 | 0.00 | 17 | 1004.0 |
| 20260504201942 | 83 | 246 | 13.9 | 22.6 | 0.00 | 0.00 | 0.00 | 17 | 1004.1 |
| 20260504201840 | 83 | 239 | 17.4 | 22.6 | 0.00 | 0.00 | 0.00 | 17 | 1004.0 |
| 20260504201756 | 83 | 252 | 16.5 | 22.6 | 0.00 | 0.00 | 0.00 | 17 | 1004.0 |
| 20260504201632 | 83 | 250 | 14.8 | 22.6 | 0.00 | 0.00 | 0.00 | 17 | 1004.0 |
| 20260504201531 | 83 | 252 | 13.9 | 20.0 | 0.00 | 0.00 | 0.00 | 17 | 1004.1 |
| 20260504201428 | 83 | 252 | 13.9 | 20.0 | 0.00 | 0.00 | 0.00 | 17 | 1004.1 |
| 20260504201347 | 83 | 278 | 14.8 | 20.0 | 0.00 | 0.00 | 0.00 | 17 | 1004.1 |
| 20260504201222 | 83 | 272 | 14.8 | 20.9 | 0.00 | 0.00 | 0.00 | 17 | 1004.1 |
| 20260504201119 | 83 | 266 | 14.8 | 20.9 | 0.00 | 0.00 | 0.00 | 17 | 1004.1 |
| 20260504201036 | 83 | 260 | 14.8 | 20.9 | 0.00 | 0.00 | 0.00 | 17 | 1004.0 |
| 20260504200933 | 83 | 263 | 14.8 | 20.9 | 0.00 | 0.00 | 0.00 | 17 | 1004.0 |
| 20260504200832 | 83 | 264 | 13.9 | 20.9 | 0.00 | 0.00 | 0.00 | 17 | 1004.1 |
| 20260504200731 | 83 | 263 | 13.9 | 20.9 | 0.00 | 0.00 | 0.00 | 17 | 1004.2 |
| 20260504200635 | 83 | 240 | 13.9 | 20.9 | 0.00 | 0.00 | 0.00 | 17 | 1004.2 |
| 20260504200529 | 83 | 249 | 14.8 | 20.9 | 0.00 | 0.00 | 0.00 | 17 | 1004.2 |
| 20260504200427 | 83 | 261 | 16.5 | 20.9 | 0.00 | 0.00 | 0.00 | 17 | 1004.2 |
| 20260504200326 | 83 | 257 | 16.5 | 20.9 | 0.00 | 0.00 | 0.00 | 17 | 1004.2 |
| 20260504200223 | 83 | 257 | 14.8 | 20.9 | 0.00 | 0.00 | 0.00 | 18 | 1004.1 |
| 20260504200139 | 83 | 273 | 13.0 | 19.1 | 0.00 | 0.00 | 0.00 | 18 | 1004.2 |
| 20260504200053 | 83 | 248 | 12.2 | 19.1 | 0.00 | 0.00 | 0.00 | 18 | 1004.2 |
| 20260504195930 | 83 | 242 | 13.0 | 19.1 | 0.00 | 0.00 | 0.00 | 18 | 1004.3 |
| 20260504195853 | 83 | 234 | 13.9 | 19.1 | 0.00 | 0.00 | 0.00 | 18 | 1004.3 |
| 20260504195752 | 83 | 251 | 14.8 | 19.1 | 0.00 | 0.00 | 0.00 | 18 | 1004.3 |
| 20260504195628 | 83 | 251 | 12.2 | 19.1 | 0.00 | 0.00 | 0.00 | 18 | 1004.3 |
| 20260504195525 | 82 | 252 | 10.4 | 18.2 | 0.00 | 0.00 | 0.00 | 18 | 1004.3 |
| 20260504195444 | 82 | 262 | 11.3 | 18.2 | 0.00 | 0.00 | 0.00 | 19 | 1004.3 |
| 20260504195323 | 82 | 260 | 10.4 | 18.2 | 0.00 | 0.00 | 0.00 | 19 | 1004.3 |
| 20260504195219 | 82 | 241 | 12.2 | 18.2 | 0.00 | 0.00 | 0.00 | 19 | 1004.3 |
| 20260504195119 | 82 | 263 | 12.2 | 18.2 | 0.00 | 0.00 | 0.00 | 18 | 1004.3 |
| 20260504195017 | 82 | 265 | 10.4 | 15.6 | 0.00 | 0.00 | 0.00 | 18 | 1004.3 |
| 20260504194935 | 82 | 254 | 10.4 | 15.6 | 0.00 | 0.00 | 0.00 | 18 | 1004.3 |
| 20260504194835 | 82 | 254 | 9.6 | 15.6 | 0.00 | 0.00 | 0.00 | 18 | 1004.3 |
| 20260504194730 | 81 | 269 | 7.8 | 15.6 | 0.00 | 0.00 | 0.00 | 18 | 1004.3 |
| 20260504194628 | 82 | 267 | 7.8 | 15.6 | 0.00 | 0.00 | 0.00 | 18 | 1004.3 |
| 20260504194522 | 82 | 287 | 7.8 | 15.6 | 0.00 | 0.00 | 0.00 | 18 | 1004.3 |
| 20260504194418 | 82 | 269 | 9.6 | 19.1 | 0.00 | 0.00 | 0.00 | 18 | 1004.4 |
| 20260504194337 | 82 | 263 | 10.4 | 19.1 | 0.00 | 0.00 | 0.00 | 18 | 1004.4 |
| 20260504194232 | 82 | 277 | 11.3 | 19.1 | 0.00 | 0.00 | 0.00 | 18 | 1004.5 |
| 20260504194134 | 82 | 293 | 10.4 | 19.1 | 0.00 | 0.00 | 0.00 | 18 | 1004.5 |
| 20260504194031 | 82 | 300 | 10.4 | 19.1 | 0.00 | 0.00 | 0.00 | 18 | 1004.5 |
| 20260504193927 | 82 | 281 | 8.7 | 19.1 | 0.00 | 0.00 | 0.00 | 18 | 1004.6 |
| 20260504193829 | 82 | 281 | 8.7 | 19.1 | 0.00 | 0.00 | 0.00 | 19 | 1004.6 |
| 20260504193726 | 82 | 268 | 10.4 | 20.0 | 0.00 | 0.00 | 0.00 | 18 | 1004.6 |
| 20260504193624 | 82 | 263 | 12.2 | 20.0 | 0.00 | 0.00 | 0.00 | 18 | 1004.6 |
| 20260504193518 | 82 | 286 | 13.0 | 20.0 | 0.00 | 0.00 | 0.00 | 18 | 1004.6 |
| 20260504193436 | 82 | 287 | 12.2 | 20.0 | 0.00 | 0.00 | 0.00 | 18 | 1004.5 |
| 20260504193318 | 82 | 269 | 12.2 | 20.0 | 0.00 | 0.00 | 0.00 | 17 | 1004.6 |
| 20260504193235 | 82 | 257 | 12.2 | 20.0 | 0.00 | 0.00 | 0.00 | 17 | 1004.5 |
| 20260504193133 | 82 | 271 | 13.9 | 20.0 | 0.00 | 0.00 | 0.00 | 17 | 1004.6 |
| 20260504193028 | 82 | 260 | 14.8 | 20.0 | 0.00 | 0.00 | 0.00 | 17 | 1004.5 |
| 20260504192929 | 82 | 278 | 15.6 | 20.0 | 0.00 | 0.00 | 0.00 | 18 | 1004.5 |
| 20260504192830 | 82 | 289 | 13.9 | 20.0 | 0.00 | 0.00 | 0.00 | 18 | 1004.6 |
| 20260504192727 | 82 | 261 | 9.6 | 17.4 | 0.00 | 0.00 | 0.00 | 18 | 1004.6 |
| 20260504192623 | 82 | 260 | 7.0 | 13.9 | 0.00 | 0.00 | 0.00 | 18 | 1004.6 |
| 20260504192524 | 82 | 253 | 7.8 | 13.9 | 0.00 | 0.00 | 0.00 | 18 | 1004.6 |
| 20260504192427 | 82 | 270 | 8.7 | 13.9 | 0.00 | 0.00 | 0.00 | 18 | 1004.7 |
| 20260504192326 | 82 | 278 | 8.7 | 17.4 | 0.00 | 0.00 | 0.00 | 18 | 1004.7 |
| 20260504192222 | 82 | 265 | 9.6 | 17.4 | 0.00 | 0.00 | 0.00 | 18 | 1004.7 |
| 20260504192124 | 82 | 267 | 9.6 | 17.4 | 0.00 | 0.00 | 0.00 | 18 | 1004.8 |
| 20260504192038 | 82 | 269 | 9.6 | 17.4 | 0.00 | 0.00 | 0.00 | 17 | 1004.7 |
| 20260504191934 | 82 | 268 | 9.6 | 17.4 | 0.00 | 0.00 | 0.00 | 18 | 1004.7 |
| 20260504191852 | 82 | 268 | 9.6 | 17.4 | 0.00 | 0.00 | 0.00 | 18 | 1004.7 |
| 20260504191727 | 82 | 281 | 10.4 | 17.4 | 0.00 | 0.00 | 0.00 | 17 | 1004.7 |
| 20260504191631 | 82 | 278 | 11.3 | 17.4 | 0.00 | 0.00 | 0.00 | 18 | 1004.7 |
| 20260504191524 | 82 | 293 | 13.0 | 17.4 | 0.00 | 0.00 | 0.00 | 18 | 1004.7 |
| 20260504191426 | 82 | 298 | 13.9 | 17.4 | 0.00 | 0.00 | 0.00 | 18 | 1004.7 |
| 20260504191327 | 82 | 292 | 12.2 | 17.4 | 0.00 | 0.00 | 0.00 | 18 | 1004.7 |
| 20260504191225 | 82 | 290 | 10.4 | 17.4 | 0.00 | 0.00 | 0.00 | 18 | 1004.7 |
| 20260504191146 | 82 | 287 | 8.7 | 17.4 | 0.00 | 0.00 | 0.00 | 18 | 1004.8 |
| 20260504191040 | 82 | 268 | 8.7 | 17.4 | 0.00 | 0.00 | 0.00 | 18 | 1004.8 |
| 20260504190925 | 82 | 290 | 10.4 | 17.4 | 0.00 | 0.00 | 0.00 | 18 | 1004.9 |
| 20260504190823 | 82 | 287 | 11.3 | 17.4 | 0.00 | 0.00 | 0.00 | 17 | 1004.8 |
| 20260504190719 | 82 | 284 | 11.3 | 17.4 | 0.00 | 0.00 | 0.00 | 18 | 1004.8 |
| 20260504190616 | 82 | 282 | 12.2 | 17.4 | 0.00 | 0.00 | 0.00 | 18 | 1004.8 |
| 20260504190531 | 82 | 286 | 12.2 | 17.4 | 0.00 | 0.00 | 0.00 | 18 | 1004.8 |
| 20260504190431 | 82 | 297 | 11.3 | 16.5 | 0.00 | 0.00 | 0.00 | 18 | 1004.8 |
| 20260504190330 | 81 | 290 | 11.3 | 15.6 | 0.00 | 0.00 | 0.00 | 18 | 1004.9 |
| 20260504190230 | 81 | 284 | 12.2 | 15.6 | 0.00 | 0.00 | 0.00 | 18 | 1004.9 |
| 20260504190132 | 81 | 278 | 10.4 | 15.6 | 0.00 | 0.00 | 0.00 | 19 | 1004.9 |
| 20260504190026 | 81 | 281 | 11.3 | 15.6 | 0.00 | 0.00 | 0.00 | 19 | 1004.9 |
| 20260504185921 | 81 | 296 | 12.2 | 15.6 | 0.00 | 0.00 | 0.00 | 18 | 1004.9 |
| 20260504185820 | 81 | 295 | 11.3 | 16.5 | 0.00 | 0.00 | 0.00 | 19 | 1004.8 |
| 20260504185738 | 81 | 275 | 10.4 | 16.5 | 0.00 | 0.00 | 0.00 | 19 | 1004.9 |
| 20260504185700 | 81 | 281 | 10.4 | 16.5 | 0.00 | 0.00 | 0.00 | 19 | 1004.8 |
| 20260504185556 | 81 | 294 | 9.6 | 16.5 | 0.00 | 0.00 | 0.00 | 19 | 1004.9 |
| 20260504185431 | 81 | 271 | 9.6 | 16.5 | 0.00 | 0.00 | 0.00 | 19 | 1004.9 |
| 20260504185350 | 81 | 286 | 9.6 | 16.5 | 0.00 | 0.00 | 0.00 | 18 | 1004.9 |
| 20260504185228 | 81 | 282 | 8.7 | 16.5 | 0.00 | 0.00 | 0.00 | 18 | 1004.9 |
| 20260504185131 | 81 | 282 | 9.6 | 16.5 | 0.00 | 0.00 | 0.00 | 18 | 1005.0 |
| 20260504185048 | 82 | 281 | 12.2 | 16.5 | 0.00 | 0.00 | 0.00 | 18 | 1005.0 |
| 20260504184925 | 82 | 300 | 11.3 | 16.5 | 0.00 | 0.00 | 0.00 | 18 | 1005.0 |
| 20260504184827 | 82 | 304 | 9.6 | 16.5 | 0.00 | 0.00 | 0.00 | 19 | 1005.0 |
| 20260504184723 | 81 | 284 | 10.4 | 17.4 | 0.00 | 0.00 | 0.00 | 19 | 1005.1 |
| 20260504184621 | 81 | 272 | 12.2 | 17.4 | 0.00 | 0.00 | 0.00 | 19 | 1005.0 |
| 20260504184515 | 81 | 286 | 11.3 | 17.4 | 0.00 | 0.00 | 0.00 | 19 | 1005.0 |
| 20260504184440 | 81 | 269 | 9.6 | 17.4 | 0.00 | 0.00 | 0.00 | 19 | 1004.9 |
| 20260504184320 | 81 | 273 | 8.7 | 17.4 | 0.00 | 0.00 | 0.00 | 19 | 1005.1 |
| 20260504184220 | 81 | 295 | 9.6 | 18.2 | 0.00 | 0.00 | 0.00 | 18 | 1005.2 |
| 20260504184118 | 81 | 307 | 11.3 | 18.2 | 0.00 | 0.00 | 0.00 | 19 | 1005.2 |
| 20260504184031 | 81 | 304 | 11.3 | 18.2 | 0.00 | 0.00 | 0.00 | 19 | 1005.2 |
| 20260504183949 | 81 | 275 | 11.3 | 18.2 | 0.00 | 0.00 | 0.00 | 18 | 1005.1 |
| 20260504183827 | 81 | 260 | 11.3 | 18.2 | 0.00 | 0.00 | 0.00 | 19 | 1005.2 |
| 20260504183725 | 81 | 247 | 11.3 | 18.2 | 0.00 | 0.00 | 0.00 | 19 | 1005.2 |
| 20260504183630 | 81 | 263 | 12.2 | 18.2 | 0.00 | 0.00 | 0.00 | 18 | 1005.2 |
| 20260504183524 | 81 | 299 | 13.9 | 18.2 | 0.00 | 0.00 | 0.00 | 18 | 1005.2 |
| 20260504183424 | 81 | 289 | 14.8 | 18.2 | 0.00 | 0.00 | 0.00 | 19 | 1005.1 |
| 20260504183325 | 81 | 279 | 13.0 | 18.2 | 0.00 | 0.00 | 0.00 | 19 | 1005.2 |
| 20260504183220 | 81 | 285 | 13.0 | 17.4 | 0.00 | 0.00 | 0.00 | 19 | 1005.2 |
| 20260504183139 | 81 | 265 | 12.2 | 14.8 | 0.00 | 0.00 | 0.00 | 19 | 1005.3 |
| 20260504183053 | 81 | 271 | 11.3 | 14.8 | 0.00 | 0.00 | 0.00 | 19 | 1005.3 |
| 20260504182929 | 81 | 276 | 10.4 | 14.8 | 0.00 | 0.00 | 0.00 | 19 | 1005.2 |
| 20260504182849 | 81 | 285 | 9.6 | 14.8 | 0.00 | 0.00 | 0.00 | 19 | 1005.3 |
| 20260504182729 | 81 | 276 | 8.7 | 14.8 | 0.00 | 0.00 | 0.00 | 18 | 1005.3 |
| 20260504182631 | 81 | 271 | 9.6 | 15.6 | 0.00 | 0.00 | 0.00 | 19 | 1005.4 |
| 20260504182525 | 81 | 269 | 11.3 | 15.6 | 0.00 | 0.00 | 0.00 | 19 | 1005.4 |
| 20260504182423 | 81 | 282 | 12.2 | 15.6 | 0.00 | 0.00 | 0.00 | 19 | 1005.5 |
| 20260504182323 | 81 | 295 | 12.2 | 15.6 | 0.00 | 0.00 | 0.00 | 19 | 1005.5 |
| 20260504182219 | 81 | 290 | 12.2 | 15.6 | 0.00 | 0.00 | 0.00 | 19 | 1005.5 |
| 20260504182141 | 81 | 284 | 11.3 | 15.6 | 0.00 | 0.00 | 0.00 | 19 | 1005.5 |
| 20260504182034 | 81 | 293 | 10.4 | 15.6 | 0.00 | 0.00 | 0.00 | 19 | 1005.5 |
| 20260504181951 | 81 | 312 | 10.4 | 15.6 | 0.00 | 0.00 | 0.00 | 18 | 1005.6 |
| 20260504181813 | 81 | 263 | 12.2 | 15.6 | 0.00 | 0.00 | 0.00 | 18 | 1005.6 |
| 20260504181734 | 81 | 263 | 11.3 | 15.6 | 0.00 | 0.00 | 0.00 | 18 | 1005.6 |
| 20260504181632 | 81 | 260 | 10.4 | 17.4 | 0.00 | 0.00 | 0.00 | 19 | 1005.6 |
| 20260504181525 | 81 | 273 | 7.8 | 17.4 | 0.00 | 0.00 | 0.00 | 19 | 1005.6 |
| 20260504181425 | 81 | 260 | 7.0 | 18.2 | 0.00 | 0.00 | 0.00 | 19 | 1005.7 |
| 20260504181323 | 81 | 271 | 8.7 | 18.2 | 0.00 | 0.00 | 0.00 | 19 | 1005.6 |
| 20260504181239 | 81 | 270 | 10.4 | 18.2 | 0.00 | 0.00 | 0.00 | 18 | 1005.7 |
| 20260504181123 | 81 | 254 | 10.4 | 18.2 | 0.00 | 0.00 | 0.00 | 18 | 1005.8 |
| 20260504181020 | 81 | 246 | 11.3 | 18.2 | 0.00 | 0.00 | 0.00 | 19 | 1005.8 |
| 20260504180917 | 81 | 264 | 12.2 | 18.2 | 0.00 | 0.00 | 0.00 | 18 | 1005.8 |
| 20260504180818 | 81 | 269 | 13.0 | 18.2 | 0.00 | 0.00 | 0.00 | 18 | 1005.9 |
| 20260504180716 | 81 | 273 | 13.9 | 18.2 | 0.00 | 0.00 | 0.00 | 19 | 1005.8 |
| 20260504180616 | 81 | 275 | 13.9 | 18.2 | 0.00 | 0.00 | 0.00 | 19 | 1005.8 |
| 20260504180529 | 81 | 269 | 12.2 | 18.2 | 0.00 | 0.00 | 0.00 | 19 | 1005.8 |
| 20260504180450 | 81 | 292 | 13.0 | 18.2 | 0.00 | 0.00 | 0.00 | 19 | 1005.8 |
| 20260504180331 | 81 | 256 | 13.0 | 18.2 | 0.00 | 0.00 | 0.00 | 19 | 1005.9 |
| 20260504180222 | 81 | 279 | 13.9 | 18.2 | 0.00 | 0.00 | 0.00 | 19 | 1005.9 |
| 20260504180120 | 81 | 273 | 13.0 | 18.2 | 0.00 | 0.00 | 0.00 | 19 | 1005.9 |
| 20260504180017 | 81 | 273 | 11.3 | 15.6 | 0.00 | 0.00 | 0.00 | 19 | 1005.9 |
| 20260504175935 | 81 | 271 | 11.3 | 15.6 | 0.00 | 0.00 | 0.00 | 19 | 1006.0 |
| 20260504175833 | 81 | 284 | 12.2 | 15.6 | 0.00 | 0.00 | 0.00 | 19 | 1006.0 |
| 20260504175752 | 81 | 279 | 12.2 | 15.6 | 0.00 | 0.00 | 0.00 | 19 | 1006.1 |
| 20260504175614 | 81 | 265 | 12.2 | 18.2 | 0.00 | 0.00 | 0.00 | 20 | 1006.1 |
| 20260504175534 | 81 | 263 | 12.2 | 18.2 | 0.00 | 0.00 | 0.00 | 20 | 1006.1 |
| 20260504175432 | 81 | 260 | 12.2 | 18.2 | 0.00 | 0.00 | 0.00 | 20 | 1006.2 |
| 20260504175317 | 81 | 270 | 12.2 | 18.2 | 0.00 | 0.00 | 0.00 | 20 | 1006.1 |
| 20260504175236 | 80 | 267 | 12.2 | 18.2 | 0.00 | 0.00 | 0.00 | 20 | 1006.1 |
| 20260504175154 | 80 | 283 | 12.2 | 18.2 | 0.00 | 0.00 | 0.00 | 20 | 1006.2 |
| 20260504175027 | 80 | 267 | 10.4 | 18.2 | 0.00 | 0.00 | 0.00 | 20 | 1006.2 |
| 20260504174946 | 81 | 279 | 10.4 | 18.2 | 0.00 | 0.00 | 0.00 | 20 | 1006.2 |
| 20260504174832 | 81 | 284 | 12.2 | 18.2 | 0.00 | 0.00 | 0.00 | 20 | 1006.2 |
| 20260504174728 | 81 | 286 | 11.3 | 18.2 | 0.00 | 0.00 | 0.00 | 20 | 1006.2 |
| 20260504174627 | 80 | 251 | 8.7 | 18.2 | 0.00 | 0.00 | 0.00 | 20 | 1006.2 |
| 20260504174524 | 80 | 279 | 8.7 | 15.6 | 0.00 | 0.00 | 0.00 | 20 | 1006.2 |
| 20260504174425 | 80 | 253 | 9.6 | 15.6 | 0.00 | 0.00 | 0.00 | 20 | 1006.3 |
| 20260504174326 | 81 | 259 | 11.3 | 15.6 | 0.00 | 0.00 | 0.00 | 20 | 1006.3 |
| 20260504174223 | 80 | 252 | 12.2 | 15.6 | 0.00 | 0.00 | 0.00 | 20 | 1006.4 |
| 20260504174124 | 80 | 269 | 10.4 | 15.6 | 0.00 | 0.00 | 0.00 | 20 | 1006.4 |
| 20260504174018 | 80 | 270 | 8.7 | 15.6 | 0.00 | 0.00 | 0.00 | 21 | 1006.3 |
| 20260504173935 | 80 | 277 | 7.8 | 15.6 | 0.00 | 0.00 | 0.00 | 21 | 1006.4 |
| 20260504173838 | 80 | 286 | 8.7 | 15.6 | 0.00 | 0.00 | 0.00 | 21 | 1006.4 |
| 20260504173737 | 80 | 290 | 11.3 | 15.6 | 0.00 | 0.00 | 0.00 | 21 | 1006.4 |
| 20260504173633 | 80 | 305 | 11.3 | 15.6 | 0.00 | 0.00 | 0.00 | 21 | 1006.4 |
| 20260504173530 | 80 | 289 | 12.2 | 15.6 | 0.00 | 0.00 | 0.00 | 21 | 1006.4 |
| 20260504173427 | 80 | 300 | 11.3 | 15.6 | 0.00 | 0.00 | 0.00 | 21 | 1006.4 |
| 20260504173329 | 80 | 300 | 9.6 | 15.6 | 0.00 | 0.00 | 0.00 | 21 | 1006.4 |
| 20260504173226 | 80 | 294 | 9.6 | 14.8 | 0.00 | 0.00 | 0.00 | 21 | 1006.4 |
| 20260504173143 | 80 | 263 | 9.6 | 14.8 | 0.00 | 0.00 | 0.00 | 21 | 1006.5 |
| 20260504173036 | 80 | 292 | 8.7 | 14.8 | 0.00 | 0.00 | 0.00 | 21 | 1006.5 |
| 20260504172953 | 80 | 279 | 7.8 | 14.8 | 0.00 | 0.00 | 0.00 | 21 | 1006.5 |
| 20260504172854 | 80 | 262 | 8.7 | 14.8 | 0.00 | 0.00 | 0.00 | 21 | 1006.5 |
| 20260504172730 | 80 | 265 | 9.6 | 14.8 | 0.00 | 0.00 | 0.00 | 21 | 1006.5 |
| 20260504172627 | 80 | 281 | 10.4 | 14.8 | 0.00 | 0.00 | 0.00 | 21 | 1006.5 |
| 20260504172521 | 80 | 281 | 11.3 | 13.9 | 0.00 | 0.00 | 0.00 | 20 | 1006.5 |
| 20260504172424 | 80 | 273 | 11.3 | 13.9 | 0.00 | 0.00 | 0.00 | 21 | 1006.5 |
| 20260504172321 | 80 | 288 | 11.3 | 13.9 | 0.00 | 0.00 | 0.00 | 21 | 1006.5 |
| 20260504172219 | 80 | 287 | 9.6 | 13.9 | 0.00 | 0.00 | 0.00 | 21 | 1006.5 |
| 20260504172119 | 80 | 274 | 9.6 | 13.9 | 0.00 | 0.00 | 0.00 | 21 | 1006.5 |
| 20260504172033 | 80 | 258 | 10.4 | 13.9 | 0.00 | 0.00 | 0.00 | 21 | 1006.5 |
| 20260504171932 | 80 | 285 | 11.3 | 13.9 | 0.00 | 0.00 | 0.00 | 21 | 1006.5 |
| 20260504171851 | 80 | 292 | 11.3 | 13.9 | 0.00 | 0.00 | 0.00 | 21 | 1006.5 |
| 20260504171729 | 80 | 289 | 10.4 | 13.9 | 0.00 | 0.00 | 0.00 | 21 | 1006.5 |
| 20260504171630 | 80 | 259 | 9.6 | 13.9 | 0.00 | 0.00 | 0.00 | 21 | 1006.5 |
| 20260504171524 | 79 | 286 | 9.6 | 13.9 | 0.00 | 0.00 | 0.00 | 21 | 1006.5 |
| 20260504171420 | 80 | 281 | 10.4 | 16.5 | 0.00 | 0.00 | 0.00 | 21 | 1006.6 |
| 20260504171343 | 80 | 286 | 9.6 | 16.5 | 0.00 | 0.00 | 0.00 | 21 | 1006.6 |
| 20260504171242 | 80 | 288 | 9.6 | 16.5 | 0.00 | 0.00 | 0.00 | 20 | 1006.6 |
| 20260504171118 | 80 | 268 | 10.4 | 16.5 | 0.00 | 0.00 | 0.00 | 21 | 1006.7 |
| 20260504171034 | 80 | 267 | 11.3 | 16.5 | 0.00 | 0.00 | 0.00 | 21 | 1006.6 |
| 20260504170930 | 80 | 271 | 11.3 | 16.5 | 0.00 | 0.00 | 0.00 | 21 | 1006.6 |
| 20260504170848 | 79 | 273 | 10.4 | 16.5 | 0.00 | 0.00 | 0.00 | 21 | 1006.7 |
| 20260504170723 | 79 | 267 | 10.4 | 16.5 | 0.00 | 0.00 | 0.00 | 21 | 1006.7 |
| 20260504170623 | 79 | 286 | 11.3 | 16.5 | 0.00 | 0.00 | 0.00 | 21 | 1006.7 |
| 20260504170515 | 79 | 272 | 13.0 | 16.5 | 0.00 | 0.00 | 0.00 | 21 | 1006.7 |
| 20260504170416 | 79 | 284 | 12.2 | 16.5 | 0.00 | 0.00 | 0.00 | 22 | 1006.7 |
| 20260504170314 | 79 | 275 | 11.3 | 16.5 | 0.00 | 0.00 | 0.00 | 21 | 1006.7 |
| 20260504170233 | 79 | 300 | 12.2 | 16.5 | 0.00 | 0.00 | 0.00 | 22 | 1006.7 |
| 20260504170129 | 79 | 284 | 12.2 | 16.5 | 0.00 | 0.00 | 0.00 | 21 | 1006.7 |
| 20260504160417 | 79 | 275 | 15.6 | 19.1 | 0.00 | 0.00 | 0.00 | 21 | 1007.1 |
| 20260504160320 | 79 | 290 | 15.6 | 19.1 | 0.00 | 0.00 | 0.00 | 21 | 1007.0 |
| 20260504160217 | 79 | 286 | 13.9 | 19.1 | 0.00 | 0.00 | 0.00 | 22 | 1007.1 |
| 20260504160134 | 79 | 279 | 13.0 | 19.1 | 0.00 | 0.00 | 0.00 | 22 | 1007.1 |
| 20260504151142 | 75 | 298 | 13.9 | 20.0 | 0.00 | 0.00 | 0.00 | 23 | 1007.6 |
| 20260504151018 | 75 | 300 | 14.8 | 20.0 | 0.00 | 0.00 | 0.00 | 23 | 1007.6 |
| 20260504150916 | 75 | 301 | 14.8 | 20.0 | 0.00 | 0.00 | 0.00 | 23 | 1007.6 |
| 20260504150818 | 75 | 319 | 13.0 | 20.0 | 0.00 | 0.00 | 0.00 | 23 | 1007.7 |
| 20260504150719 | 75 | 304 | 12.2 | 19.1 | 0.00 | 0.00 | 0.00 | 24 | 1007.7 |
| 20260504150622 | 74 | 296 | 13.0 | 19.1 | 0.00 | 0.00 | 0.00 | 23 | 1007.7 |
| 20260504150516 | 74 | 297 | 13.9 | 19.1 | 0.00 | 0.00 | 0.00 | 23 | 1007.7 |
| 20260504150434 | 74 | 287 | 13.9 | 19.1 | 0.00 | 0.00 | 0.00 | 23 | 1007.7 |
| 20260504150331 | 74 | 290 | 15.6 | 19.1 | 0.00 | 0.00 | 0.00 | 23 | 1007.7 |
| 20260504150251 | 74 | 296 | 15.6 | 20.9 | 0.00 | 0.00 | 0.00 | 23 | 1007.7 |
| 20260504150127 | 74 | 303 | 14.8 | 20.9 | 0.00 | 0.00 | 0.00 | 23 | 1007.7 |
| 20260504141316 | 70 | 281 | 12.2 | 16.5 | 0.00 | 0.00 | 0.00 | 28 | 1007.7 |
| 20260504141233 | 70 | 286 | 11.3 | 16.5 | 0.00 | 0.00 | 0.00 | 28 | 1007.8 |
| 20260504141129 | 69 | 279 | 12.2 | 16.5 | 0.00 | 0.00 | 0.00 | 28 | 1007.8 |
| 20260504141026 | 69 | 286 | 13.0 | 16.5 | 0.00 | 0.00 | 0.00 | 28 | 1007.8 |
| 20260504140922 | 69 | 272 | 12.2 | 16.5 | 0.00 | 0.00 | 0.00 | 28 | 1007.8 |
| 20260504140821 | 69 | 276 | 12.2 | 17.4 | 0.00 | 0.00 | 0.00 | 29 | 1007.8 |
| 20260504140716 | 69 | 277 | 12.2 | 17.4 | 0.00 | 0.00 | 0.00 | 29 | 1007.8 |
| 20260504140632 | 69 | 284 | 12.2 | 17.4 | 0.00 | 0.00 | 0.00 | 29 | 1007.8 |
| 20260504140530 | 69 | 277 | 12.2 | 17.4 | 0.00 | 0.00 | 0.00 | 29 | 1007.8 |
| 20260504140431 | 69 | 285 | 11.3 | 17.4 | 0.00 | 0.00 | 0.00 | 29 | 1007.8 |
| 20260504140331 | 69 | 278 | 11.3 | 17.4 | 0.00 | 0.00 | 0.00 | 29 | 1007.8 |
| 20260504140227 | 68 | 293 | 13.0 | 17.4 | 0.00 | 0.00 | 0.00 | 30 | 1007.7 |
| 20260504140124 | 68 | 290 | 13.0 | 17.4 | 0.00 | 0.00 | 0.00 | 30 | 1007.7 |
| 20260504130817 | 58 | 288 | 10.4 | 13.0 | 0.00 | 0.00 | 0.00 | 41 | 1007.8 |
| 20260504130733 | 58 | 267 | 10.4 | 13.0 | 0.00 | 0.00 | 0.00 | 41 | 1007.7 |
| 20260504130653 | 58 | 278 | 10.4 | 13.9 | 0.00 | 0.00 | 0.00 | 41 | 1007.6 |
| 20260504130526 | 58 | 267 | 10.4 | 13.9 | 0.00 | 0.00 | 0.00 | 41 | 1007.7 |
| 20260504130429 | 57 | 360 | 9.6 | 13.9 | 0.00 | 0.00 | 0.00 | 42 | 1007.7 |
| 20260504130328 | 57 | 360 | 8.7 | 13.9 | 0.00 | 0.00 | 0.00 | 42 | 1007.7 |
| 20260504130225 | 57 | 360 | 8.7 | 13.9 | 0.00 | 0.00 | 0.00 | 42 | 1007.7 |
| 20260504130124 | 57 | 360 | 9.6 | 13.9 | 0.00 | 0.00 | 0.00 | 42 | 1007.6 |
| 20260504120231 | 51 | 293 | 8.7 | 10.4 | 0.00 | 0.00 | 0.00 | 50 | 1006.8 |
| 20260504120148 | 51 | 292 | 7.8 | 10.4 | 0.00 | 0.00 | 0.00 | 50 | 1006.7 |
| 20260504110633 | 48 | 281 | 7.0 | 9.6 | 0.00 | 0.00 | 0.00 | 56 | 1006.4 |
| 20260504110525 | 48 | 291 | 7.0 | 9.6 | 0.00 | 0.00 | 0.00 | 56 | 1006.4 |
| 20260504110422 | 48 | 286 | 7.0 | 9.6 | 0.00 | 0.00 | 0.00 | 56 | 1006.3 |
| 20260504110341 | 48 | 286 | 7.8 | 9.6 | 0.00 | 0.00 | 0.00 | 56 | 1006.3 |
| 20260504110215 | 48 | 279 | 7.0 | 9.6 | 0.00 | 0.00 | 0.00 | 56 | 1006.4 |
| 20260504110119 | 48 | 290 | 7.0 | 9.6 | 0.00 | 0.00 | 0.00 | 56 | 1006.3 |
| 20260504100528 | 46 | 288 | 5.2 | 7.0 | 0.00 | 0.00 | 0.00 | 66 | 1006.4 |
| 20260504100425 | 45 | 292 | 5.2 | 7.0 | 0.00 | 0.00 | 0.00 | 66 | 1006.3 |
| 20260504100325 | 45 | 288 | 5.2 | 7.0 | 0.00 | 0.00 | 0.00 | 66 | 1006.4 |
| 20260504100221 | 45 | 312 | 4.3 | 6.1 | 0.00 | 0.00 | 0.00 | 66 | 1006.5 |
| 20260504100118 | 45 | 294 | 4.3 | 6.1 | 0.00 | 0.00 | 0.00 | 67 | 1006.4 |
| 20260504090141 | 45 | 276 | 4.3 | 5.2 | 0.00 | 0.00 | 0.00 | 73 | 1006.3 |
| 20260504081929 | 48 | 360 | 0.0 | 6.1 | 0.00 | 0.00 | 0.00 | 67 | 1006.7 |
| 20260504081827 | 48 | 360 | 0.0 | 6.1 | 0.00 | 0.00 | 0.00 | 67 | 1006.7 |
| 20260504081726 | 48 | 360 | 0.0 | 6.1 | 0.00 | 0.00 | 0.00 | 67 | 1006.7 |
| 20260504081623 | 48 | 360 | 0.0 | 6.1 | 0.00 | 0.00 | 0.00 | 67 | 1006.7 |
| 20260504081520 | 48 | 360 | 0.9 | 7.0 | 0.00 | 0.00 | 0.00 | 68 | 1006.7 |
| 20260504081416 | 48 | 360 | 1.7 | 7.0 | 0.00 | 0.00 | 0.00 | 68 | 1006.7 |
| 20260504081319 | 48 | 360 | 2.6 | 7.0 | 0.00 | 0.00 | 0.00 | 68 | 1006.7 |
| 20260504081217 | 48 | 360 | 3.5 | 7.0 | 0.00 | 0.00 | 0.00 | 68 | 1006.7 |
| 20260504081135 | 48 | 360 | 4.3 | 7.0 | 0.00 | 0.00 | 0.00 | 68 | 1006.7 |
| 20260504081048 | 48 | 360 | 5.2 | 7.0 | 0.00 | 0.00 | 0.00 | 68 | 1006.6 |
| 20260504080928 | 48 | 360 | 5.2 | 7.0 | 0.00 | 0.00 | 0.00 | 67 | 1006.7 |
| 20260504080847 | 48 | 360 | 5.2 | 7.0 | 0.00 | 0.00 | 0.00 | 67 | 1006.6 |
| 20260504080727 | 48 | 360 | 5.2 | 7.0 | 0.00 | 0.00 | 0.00 | 67 | 1006.6 |
| 20260504080625 | 48 | 360 | 6.1 | 7.0 | 0.00 | 0.00 | 0.00 | 67 | 1006.7 |
| 20260504080524 | 48 | 360 | 6.1 | 7.0 | 0.00 | 0.00 | 0.00 | 67 | 1006.6 |
| 20260504080420 | 48 | 360 | 6.1 | 7.0 | 0.00 | 0.00 | 0.00 | 66 | 1006.7 |
| 20260504080338 | 48 | 360 | 5.2 | 6.1 | 0.00 | 0.00 | 0.00 | 66 | 1006.7 |
| 20260504080214 | 48 | 360 | 5.2 | 6.1 | 0.00 | 0.00 | 0.00 | 66 | 1006.7 |
| 20260504080133 | 49 | 360 | 5.2 | 7.0 | 0.00 | 0.00 | 0.00 | 65 | 1006.7 |